Time,TemperatureF,DewpointF,PressureIn,WindDirection,WindDirectionDegrees,WindSpeedMPH,WindSpeedGustMPH,Humidity,HourlyPrecipIn,Conditions,Clouds,dailyrainin,SoftwareType,DateUTC
2013-01-20 00:01:00,40.3,29.5,30.18,WSW,245,3.0,3.0,65,0.00,,,0.01,Wunderground v.1.15,2013-01-20 05:01:00,
2013-01-20 00:02:00,40.3,29.5,30.18,SW,224,3.0,3.0,65,0.00,,,0.00,Wunderground v.1.15,2013-01-20 05:02:00,
2013-01-20 00:03:00,40.2,29.4,30.18,WSW,245,2.0,3.0,65,0.00,,,0.00,Wunderground v.1.15,2013-01-20 05:03:00,
2013-01-20 00:07:00,40.1,29.3,30.18,SW,229,1.0,3.0,65,0.00,,,0.00,Wunderground v.1.15,2013-01-20 05:07:00,
2013-01-20 00:08:00,40.1,29.3,30.18,SW,232,2.0,3.0,65,0.00,,,0.00,Wunderground v.1.15,2013-01-20 05:08:00,
2013-01-20 00:13:00,39.8,29.4,30.18,WSW,243,4.0,4.0,66,0.00,,,0.00,Wunderground v.1.15,2013-01-20 05:13:00,
2013-01-20 00:15:00,39.7,29.3,30.18,SW,232,3.0,4.0,66,0.00,,,0.00,Wunderground v.1.15,2013-01-20 05:15:00,
2013-01-20 00:18:00,39.7,29.3,30.17,SW,234,4.0,4.0,66,0.00,,,0.00,Wunderground v.1.15,2013-01-20 05:18:00,
2013-01-20 00:19:00,39.7,29.3,30.17,SW,229,3.0,3.0,66,0.00,,,0.00,Wunderground v.1.15,2013-01-20 05:19:00,
2013-01-20 00:20:00,39.7,29.3,30.17,SW,226,3.0,3.0,66,0.00,,,0.00,Wunderground v.1.15,2013-01-20 05:20:00,
2013-01-20 00:23:00,39.7,29.3,30.18,SW,224,3.0,3.0,66,0.00,,,0.00,Wunderground v.1.15,2013-01-20 05:23:00,
2013-01-20 00:24:00,39.8,29.0,30.18,SW,228,3.0,3.0,65,0.00,,,0.00,Wunderground v.1.15,2013-01-20 05:24:00,
2013-01-20 00:25:00,39.8,29.0,30.17,SW,228,5.0,5.0,65,0.00,,,0.00,Wunderground v.1.15,2013-01-20 05:25:00,
2013-01-20 00:30:00,39.8,29.0,30.17,SW,236,2.0,3.0,65,0.00,,,0.00,Wunderground v.1.15,2013-01-20 05:30:00,
2013-01-20 00:34:00,39.9,29.1,30.17,SW,221,3.0,4.0,65,0.00,,,0.00,Wunderground v.1.15,2013-01-20 05:34:00,
2013-01-20 00:37:00,40.0,29.2,30.17,SW,231,3.0,4.0,65,0.00,,,0.00,Wunderground v.1.15,2013-01-20 05:37:00,
2013-01-20 00:39:00,40.0,29.2,30.17,WSW,243,3.0,4.0,65,0.00,,,0.00,Wunderground v.1.15,2013-01-20 05:39:00,
2013-01-20 00:41:00,40.0,29.2,30.17,SSW,203,2.0,3.0,65,0.00,,,0.00,Wunderground v.1.15,2013-01-20 05:41:00,
2013-01-20 00:42:00,40.0,29.2,30.16,SW,222,3.0,3.0,65,0.00,,,0.00,Wunderground v.1.15,2013-01-20 05:42:00,
2013-01-20 00:46:00,40.0,29.2,30.16,SW,235,3.0,5.0,65,0.00,,,0.00,Wunderground v.1.15,2013-01-20 05:46:00,
2013-01-20 00:48:00,40.0,29.2,30.16,WSW,257,2.0,5.0,65,0.00,,,0.00,Wunderground v.1.15,2013-01-20 05:48:00,
2013-01-20 00:49:00,40.0,29.2,30.16,SW,226,5.0,5.0,65,0.00,,,0.00,Wunderground v.1.15,2013-01-20 05:49:00,
2013-01-20 00:51:00,40.0,29.2,30.16,SW,229,2.0,3.0,65,0.00,,,0.00,Wunderground v.1.15,2013-01-20 05:51:00,
2013-01-20 00:53:00,39.9,29.1,30.16,SW,231,3.0,3.0,65,0.00,,,0.00,Wunderground v.1.15,2013-01-20 05:53:00,
2013-01-20 00:56:00,39.8,29.0,30.17,SW,232,2.0,3.0,65,0.00,,,0.00,Wunderground v.1.15,2013-01-20 05:56:00,
2013-01-20 00:58:00,39.8,29.0,30.17,West,259,2.0,4.0,65,0.00,,,0.00,Wunderground v.1.15,2013-01-20 05:58:00,
2013-01-20 01:00:00,39.7,29.3,30.16,SW,219,3.0,3.0,66,0.00,,,0.00,Wunderground v.1.15,2013-01-20 06:00:00,
2013-01-20 01:03:00,39.5,29.1,30.16,SW,236,3.0,3.0,66,0.00,,,0.00,Wunderground v.1.15,2013-01-20 06:03:00,
2013-01-20 01:05:00,39.4,29.0,30.16,SW,224,3.0,3.0,66,0.00,,,0.00,Wunderground v.1.15,2013-01-20 06:05:00,
2013-01-20 01:06:00,39.4,29.0,30.16,SW,228,2.0,3.0,66,0.00,,,0.00,Wunderground v.1.15,2013-01-20 06:06:00,
2013-01-20 01:10:00,39.3,28.9,30.16,WSW,252,3.0,3.0,66,0.00,,,0.00,Wunderground v.1.15,2013-01-20 06:10:00,
2013-01-20 01:11:00,39.4,29.0,30.16,WSW,243,2.0,3.0,66,0.00,,,0.00,Wunderground v.1.15,2013-01-20 06:11:00,
2013-01-20 01:14:00,39.3,28.9,30.16,SW,232,2.0,3.0,66,0.00,,,0.00,Wunderground v.1.15,2013-01-20 06:14:00,
2013-01-20 01:15:00,39.4,29.0,30.16,SW,222,3.0,3.0,66,0.00,,,0.00,Wunderground v.1.15,2013-01-20 06:15:00,
2013-01-20 01:18:00,39.3,29.3,30.16,SW,226,4.0,4.0,67,0.00,,,0.00,Wunderground v.1.15,2013-01-20 06:18:00,
2013-01-20 01:20:00,39.3,29.3,30.16,SW,235,2.0,3.0,67,0.00,,,0.00,Wunderground v.1.15,2013-01-20 06:20:00,
2013-01-20 01:21:00,39.2,29.2,30.16,WSW,245,2.0,3.0,67,0.00,,,0.00,Wunderground v.1.15,2013-01-20 06:21:00,
2013-01-20 01:23:00,39.2,29.2,30.16,SW,224,3.0,3.0,67,0.00,,,0.00,Wunderground v.1.15,2013-01-20 06:23:00,
2013-01-20 01:24:00,39.1,29.1,30.16,SW,225,4.0,4.0,67,0.00,,,0.00,Wunderground v.1.15,2013-01-20 06:24:00,
2013-01-20 01:27:00,39.1,29.1,30.16,SW,233,2.0,4.0,67,0.00,,,0.00,Wunderground v.1.15,2013-01-20 06:27:00,
2013-01-20 01:29:00,39.0,29.0,30.15,WSW,253,2.0,4.0,67,0.00,,,0.00,Wunderground v.1.15,2013-01-20 06:29:00,
2013-01-20 01:30:00,39.0,29.0,30.15,SSW,207,2.0,2.0,67,0.00,,,0.00,Wunderground v.1.15,2013-01-20 06:30:00,
2013-01-20 01:33:00,38.9,29.2,30.15,WSW,252,2.0,2.0,68,0.00,,,0.00,Wunderground v.1.15,2013-01-20 06:33:00,
2013-01-20 01:34:00,38.9,28.9,30.15,West,263,5.0,5.0,67,0.00,,,0.00,Wunderground v.1.15,2013-01-20 06:34:00,
2013-01-20 01:35:00,38.9,28.9,30.15,SSW,198,2.0,5.0,67,0.00,,,0.00,Wunderground v.1.15,2013-01-20 06:35:00,
2013-01-20 01:38:00,38.9,29.2,30.15,SW,224,2.0,5.0,68,0.00,,,0.00,Wunderground v.1.15,2013-01-20 06:38:00,
2013-01-20 01:39:00,38.9,29.2,30.15,SW,225,1.0,2.0,68,0.00,,,0.00,Wunderground v.1.15,2013-01-20 06:39:00,
2013-01-20 01:44:00,38.9,28.9,30.15,WSW,249,1.0,4.0,67,0.00,,,0.00,Wunderground v.1.15,2013-01-20 06:44:00,
2013-01-20 01:45:00,38.9,29.2,30.15,SW,232,1.0,4.0,68,0.00,,,0.00,Wunderground v.1.15,2013-01-20 06:45:00,
2013-01-20 01:49:00,38.8,29.1,30.15,SW,232,3.0,4.0,68,0.00,,,0.00,Wunderground v.1.15,2013-01-20 06:49:00,
2013-01-20 01:53:00,38.7,29.0,30.15,SW,225,2.0,2.0,68,0.00,,,0.00,Wunderground v.1.15,2013-01-20 06:53:00,
2013-01-20 01:54:00,38.7,29.0,30.14,SW,228,3.0,3.0,68,0.00,,,0.00,Wunderground v.1.15,2013-01-20 06:54:00,
2013-01-20 01:55:00,38.7,29.0,30.14,SW,224,2.0,3.0,68,0.00,,,0.00,Wunderground v.1.15,2013-01-20 06:55:00,
2013-01-20 01:56:00,38.7,29.0,30.14,SW,214,2.0,3.0,68,0.00,,,0.00,Wunderground v.1.15,2013-01-20 06:56:00,
2013-01-20 01:59:00,38.7,29.0,30.14,WSW,248,2.0,4.0,68,0.00,,,0.00,Wunderground v.1.15,2013-01-20 06:59:00,
2013-01-20 02:00:00,38.7,29.0,30.14,WSW,240,2.0,2.0,68,0.00,,,0.00,Wunderground v.1.15,2013-01-20 07:00:00,
2013-01-20 02:01:00,38.7,29.0,30.14,SW,228,2.0,2.0,68,0.00,,,0.00,Wunderground v.1.15,2013-01-20 07:01:00,
2013-01-20 02:04:00,38.6,28.9,30.14,SW,229,3.0,4.0,68,0.00,,,0.00,Wunderground v.1.15,2013-01-20 07:04:00,
2013-01-20 02:05:00,38.6,28.9,30.14,WSW,252,2.0,4.0,68,0.00,,,0.00,Wunderground v.1.15,2013-01-20 07:05:00,
2013-01-20 02:06:00,38.6,28.9,30.14,WSW,249,2.0,4.0,68,0.00,,,0.00,Wunderground v.1.15,2013-01-20 07:06:00,
2013-01-20 02:09:00,38.5,28.9,30.14,SW,229,3.0,4.0,68,0.00,,,0.00,Wunderground v.1.15,2013-01-20 07:09:00,
2013-01-20 02:10:00,38.5,28.9,30.14,SW,215,1.0,3.0,68,0.00,,,0.00,Wunderground v.1.15,2013-01-20 07:10:00,
2013-01-20 02:11:00,38.5,28.9,30.14,WSW,238,1.0,3.0,68,0.00,,,0.00,Wunderground v.1.15,2013-01-20 07:11:00,
2013-01-20 02:15:00,38.5,28.9,30.14,WSW,256,1.0,4.0,68,0.00,,,0.00,Wunderground v.1.15,2013-01-20 07:15:00,
2013-01-20 02:16:00,38.5,28.9,30.14,SW,215,2.0,4.0,68,0.00,,,0.00,Wunderground v.1.15,2013-01-20 07:16:00,
2013-01-20 02:20:00,38.4,28.8,30.14,WSW,246,2.0,3.0,68,0.00,,,0.00,Wunderground v.1.15,2013-01-20 07:20:00,
2013-01-20 02:21:00,38.4,29.1,30.14,SW,228,5.0,5.0,69,0.00,,,0.00,Wunderground v.1.15,2013-01-20 07:21:00,
2013-01-20 02:25:00,38.3,29.0,30.14,SW,216,2.0,5.0,69,0.00,,,0.00,Wunderground v.1.15,2013-01-20 07:25:00,
2013-01-20 02:26:00,38.3,29.0,30.14,SW,235,3.0,5.0,69,0.00,,,0.00,Wunderground v.1.15,2013-01-20 07:26:00,
2013-01-20 02:27:00,38.2,28.9,30.14,SW,217,2.0,5.0,69,0.00,,,0.00,Wunderground v.1.15,2013-01-20 07:27:00,
2013-01-20 02:30:00,38.1,28.8,30.14,SW,222,5.0,6.0,69,0.00,,,0.00,Wunderground v.1.15,2013-01-20 07:30:00,
2013-01-20 02:31:00,38.2,28.9,30.14,SW,219,4.0,6.0,69,0.00,,,0.00,Wunderground v.1.15,2013-01-20 07:31:00,
2013-01-20 02:32:00,38.2,28.9,30.14,SW,224,3.0,6.0,69,0.00,,,0.00,Wunderground v.1.15,2013-01-20 07:32:00,
2013-01-20 02:35:00,38.3,29.0,30.14,SW,225,5.0,6.0,69,0.00,,,0.00,Wunderground v.1.15,2013-01-20 07:35:00,
2013-01-20 02:36:00,38.3,29.0,30.14,WSW,252,3.0,6.0,69,0.00,,,0.00,Wunderground v.1.15,2013-01-20 07:36:00,
2013-01-20 02:37:00,38.3,29.0,30.14,SW,226,5.0,6.0,69,0.00,,,0.00,Wunderground v.1.15,2013-01-20 07:37:00,
2013-01-20 02:40:00,38.5,28.9,30.14,SW,222,4.0,5.0,68,0.00,,,0.00,Wunderground v.1.15,2013-01-20 07:40:00,
2013-01-20 02:41:00,38.5,28.9,30.14,SW,222,4.0,6.0,68,0.00,,,0.00,Wunderground v.1.15,2013-01-20 07:41:00,
2013-01-20 02:42:00,38.6,28.9,30.14,WSW,245,6.0,6.0,68,0.00,,,0.00,Wunderground v.1.15,2013-01-20 07:42:00,
2013-01-20 02:45:00,38.7,29.0,30.14,SW,221,4.0,7.0,68,0.00,,,0.00,Wunderground v.1.15,2013-01-20 07:45:00,
2013-01-20 02:46:00,38.7,29.0,30.14,SW,226,4.0,7.0,68,0.00,,,0.00,Wunderground v.1.15,2013-01-20 07:46:00,
2013-01-20 02:47:00,38.7,29.0,30.14,WSW,238,6.0,7.0,68,0.00,,,0.00,Wunderground v.1.15,2013-01-20 07:47:00,
2013-01-20 02:48:00,38.8,29.1,30.14,SW,224,6.0,7.0,68,0.00,,,0.00,Wunderground v.1.15,2013-01-20 07:48:00,
2013-01-20 02:50:00,38.9,28.9,30.14,SW,219,6.0,6.0,67,0.00,,,0.00,Wunderground v.1.15,2013-01-20 07:50:00,
2013-01-20 02:51:00,38.9,28.9,30.14,WSW,250,5.0,7.0,67,0.00,,,0.00,Wunderground v.1.15,2013-01-20 07:51:00,
2013-01-20 02:52:00,39.0,29.0,30.14,SW,232,4.0,7.0,67,0.00,,,0.00,Wunderground v.1.15,2013-01-20 07:52:00,
2013-01-20 02:53:00,39.1,29.1,30.14,SW,219,5.0,7.0,67,0.00,,,0.00,Wunderground v.1.15,2013-01-20 07:53:00,
2013-01-20 02:55:00,39.2,29.2,30.14,SW,225,6.0,9.0,67,0.00,,,0.00,Wunderground v.1.15,2013-01-20 07:55:00,
2013-01-20 02:56:00,39.2,29.2,30.14,WSW,250,5.0,9.0,67,0.00,,,0.00,Wunderground v.1.15,2013-01-20 07:56:00,
2013-01-20 02:57:00,39.2,29.2,30.14,SW,231,5.0,9.0,67,0.00,,,0.00,Wunderground v.1.15,2013-01-20 07:57:00,
2013-01-20 02:58:00,39.3,29.3,30.14,SW,222,3.0,9.0,67,0.00,,,0.00,Wunderground v.1.15,2013-01-20 07:58:00,
2013-01-20 03:01:00,39.3,28.9,30.14,SW,224,3.0,4.0,66,0.00,,,0.00,Wunderground v.1.15,2013-01-20 08:01:00,
2013-01-20 03:02:00,39.2,29.2,30.14,WNW,283,2.0,4.0,67,0.00,,,0.00,Wunderground v.1.15,2013-01-20 08:02:00,
2013-01-20 03:03:00,39.2,29.2,30.14,SW,215,5.0,5.0,67,0.00,,,0.00,Wunderground v.1.15,2013-01-20 08:03:00,
2013-01-20 03:06:00,39.1,29.1,30.14,SW,236,3.0,6.0,67,0.00,,,0.00,Wunderground v.1.15,2013-01-20 08:06:00,
2013-01-20 03:07:00,39.1,29.1,30.14,WSW,253,2.0,6.0,67,0.00,,,0.00,Wunderground v.1.15,2013-01-20 08:07:00,
2013-01-20 03:08:00,39.1,29.1,30.14,WSW,245,2.0,6.0,67,0.00,,,0.00,Wunderground v.1.15,2013-01-20 08:08:00,
2013-01-20 03:11:00,39.1,29.1,30.14,SW,229,3.0,4.0,67,0.00,,,0.00,Wunderground v.1.15,2013-01-20 08:11:00,
2013-01-20 03:12:00,39.0,29.0,30.14,SW,224,2.0,4.0,67,0.00,,,0.00,Wunderground v.1.15,2013-01-20 08:12:00,
2013-01-20 03:13:00,39.0,29.0,30.13,SW,229,2.0,4.0,67,0.00,,,0.00,Wunderground v.1.15,2013-01-20 08:13:00,
2013-01-20 03:16:00,38.9,28.9,30.13,SW,231,3.0,6.0,67,0.00,,,0.00,Wunderground v.1.15,2013-01-20 08:16:00,
2013-01-20 03:17:00,38.9,29.2,30.13,WSW,252,2.0,6.0,68,0.00,,,0.00,Wunderground v.1.15,2013-01-20 08:17:00,
2013-01-20 03:18:00,38.8,28.8,30.13,WSW,250,4.0,6.0,67,0.00,,,0.00,Wunderground v.1.15,2013-01-20 08:18:00,
2013-01-20 03:21:00,38.8,29.1,30.13,SW,232,2.0,3.0,68,0.00,,,0.00,Wunderground v.1.15,2013-01-20 08:21:00,
2013-01-20 03:22:00,38.7,29.0,30.13,SW,232,2.0,3.0,68,0.00,,,0.00,Wunderground v.1.15,2013-01-20 08:22:00,
2013-01-20 03:23:00,38.6,28.9,30.13,WSW,240,2.0,3.0,68,0.00,,,0.00,Wunderground v.1.15,2013-01-20 08:23:00,
2013-01-20 03:24:00,38.6,28.9,30.13,WSW,242,2.0,3.0,68,0.00,,,0.00,Wunderground v.1.15,2013-01-20 08:24:00,
2013-01-20 03:26:00,38.5,28.9,30.13,SW,226,2.0,5.0,68,0.00,,,0.00,Wunderground v.1.15,2013-01-20 08:26:00,
2013-01-20 03:27:00,38.5,28.9,30.13,WSW,238,2.0,5.0,68,0.00,,,0.00,Wunderground v.1.15,2013-01-20 08:27:00,
2013-01-20 03:28:00,38.5,28.9,30.13,WSW,248,2.0,5.0,68,0.00,,,0.00,Wunderground v.1.15,2013-01-20 08:28:00,
2013-01-20 03:29:00,38.5,28.9,30.13,WSW,243,2.0,5.0,68,0.00,,,0.00,Wunderground v.1.15,2013-01-20 08:29:00,
2013-01-20 03:31:00,38.5,28.9,30.13,WSW,255,2.0,2.0,68,0.00,,,0.00,Wunderground v.1.15,2013-01-20 08:31:00,
2013-01-20 03:32:00,38.5,28.9,30.13,WSW,248,2.0,2.0,68,0.00,,,0.00,Wunderground v.1.15,2013-01-20 08:32:00,
2013-01-20 03:33:00,38.5,28.9,30.13,SW,234,2.0,3.0,68,0.00,,,0.00,Wunderground v.1.15,2013-01-20 08:33:00,
2013-01-20 03:34:00,38.5,28.9,30.13,SW,232,2.0,3.0,68,0.00,,,0.00,Wunderground v.1.15,2013-01-20 08:34:00,
2013-01-20 03:36:00,38.5,28.9,30.13,SW,221,2.0,4.0,68,0.00,,,0.00,Wunderground v.1.15,2013-01-20 08:36:00,
2013-01-20 03:37:00,38.5,28.9,30.12,SW,232,2.0,4.0,68,0.00,,,0.00,Wunderground v.1.15,2013-01-20 08:37:00,
2013-01-20 03:38:00,38.4,28.8,30.12,SW,224,3.0,4.0,68,0.00,,,0.00,Wunderground v.1.15,2013-01-20 08:38:00,
2013-01-20 03:39:00,38.4,28.8,30.13,SW,233,3.0,4.0,68,0.00,,,0.00,Wunderground v.1.15,2013-01-20 08:39:00,
2013-01-20 03:41:00,38.4,28.8,30.13,WSW,257,2.0,3.0,68,0.00,,,0.00,Wunderground v.1.15,2013-01-20 08:41:00,
2013-01-20 03:42:00,38.4,28.8,30.13,West,259,1.0,3.0,68,0.00,,,0.00,Wunderground v.1.15,2013-01-20 08:42:00,
2013-01-20 03:43:00,38.4,28.8,30.13,West,280,1.0,3.0,68,0.00,,,0.00,Wunderground v.1.15,2013-01-20 08:43:00,
2013-01-20 03:44:00,38.4,28.8,30.13,WSW,255,2.0,3.0,68,0.00,,,0.00,Wunderground v.1.15,2013-01-20 08:44:00,
2013-01-20 03:46:00,38.4,29.1,30.13,West,259,1.0,3.0,69,0.00,,,0.00,Wunderground v.1.15,2013-01-20 08:46:00,
2013-01-20 03:47:00,38.3,29.0,30.13,West,278,1.0,3.0,69,0.00,,,0.00,Wunderground v.1.15,2013-01-20 08:47:00,
2013-01-20 03:48:00,38.3,28.7,30.13,West,278,1.0,3.0,68,0.00,,,0.00,Wunderground v.1.15,2013-01-20 08:48:00,
2013-01-20 03:50:00,38.2,28.9,30.13,WSW,257,2.0,2.0,69,0.00,,,0.00,Wunderground v.1.15,2013-01-20 08:50:00,
2013-01-20 03:51:00,38.2,28.9,30.13,WSW,255,1.0,2.0,69,0.00,,,0.00,Wunderground v.1.15,2013-01-20 08:51:00,
2013-01-20 03:53:00,38.1,28.8,30.13,West,263,2.0,2.0,69,0.00,,,0.00,Wunderground v.1.15,2013-01-20 08:53:00,
2013-01-20 03:55:00,38.0,28.7,30.13,WSW,240,1.0,2.0,69,0.00,,,0.00,Wunderground v.1.15,2013-01-20 08:55:00,
2013-01-20 03:56:00,38.0,28.7,30.13,WSW,243,1.0,2.0,69,0.00,,,0.00,Wunderground v.1.15,2013-01-20 08:56:00,
2013-01-20 03:58:00,37.8,28.9,30.12,WSW,245,0.0,2.0,70,0.00,,,0.00,Wunderground v.1.15,2013-01-20 08:58:00,
2013-01-20 04:00:00,37.8,28.9,30.12,WSW,245,1.0,1.0,70,0.00,,,0.00,Wunderground v.1.15,2013-01-20 09:00:00,
2013-01-20 04:01:00,37.6,28.7,30.12,WSW,252,1.0,1.0,70,0.00,,,0.00,Wunderground v.1.15,2013-01-20 09:01:00,
2013-01-20 04:03:00,37.4,28.9,30.12,WSW,253,1.0,1.0,71,0.00,,,0.00,Wunderground v.1.15,2013-01-20 09:03:00,
2013-01-20 04:04:00,37.4,28.9,30.12,WSW,253,1.0,1.0,71,0.00,,,0.00,Wunderground v.1.15,2013-01-20 09:04:00,
2013-01-20 04:05:00,37.2,28.7,30.12,WSW,253,1.0,1.0,71,0.00,,,0.00,Wunderground v.1.15,2013-01-20 09:05:00,
2013-01-20 04:07:00,36.9,28.7,30.12,WSW,253,0.0,1.0,72,0.00,,,0.00,Wunderground v.1.15,2013-01-20 09:07:00,
2013-01-20 04:08:00,36.7,28.5,30.12,WSW,253,1.0,1.0,72,0.00,,,0.00,Wunderground v.1.15,2013-01-20 09:08:00,
2013-01-20 04:09:00,36.7,28.5,30.12,WSW,253,0.0,1.0,72,0.00,,,0.00,Wunderground v.1.15,2013-01-20 09:09:00,
2013-01-20 04:11:00,36.4,28.6,30.12,WSW,253,1.0,1.0,73,0.00,,,0.00,Wunderground v.1.15,2013-01-20 09:11:00,
2013-01-20 04:12:00,36.3,28.5,30.12,West,262,0.0,2.0,73,0.00,,,0.00,Wunderground v.1.15,2013-01-20 09:12:00,
2013-01-20 04:14:00,36.1,28.3,30.12,West,263,0.0,2.0,73,0.00,,,0.00,Wunderground v.1.15,2013-01-20 09:14:00,
2013-01-20 04:16:00,35.8,28.3,30.12,West,270,1.0,2.0,74,0.00,,,0.00,Wunderground v.1.15,2013-01-20 09:16:00,
2013-01-20 04:17:00,35.8,28.3,30.12,West,270,0.0,2.0,74,0.00,,,0.00,Wunderground v.1.15,2013-01-20 09:17:00,
2013-01-20 04:19:00,35.6,28.5,30.12,West,270,0.0,2.0,75,0.00,,,0.00,Wunderground v.1.15,2013-01-20 09:19:00,
2013-01-20 04:21:00,35.4,28.3,30.12,West,270,0.0,0.0,75,0.00,,,0.00,Wunderground v.1.15,2013-01-20 09:21:00,
2013-01-20 04:22:00,35.3,28.2,30.12,West,270,0.0,0.0,75,0.00,,,0.00,Wunderground v.1.15,2013-01-20 09:22:00,
2013-01-20 04:24:00,35.1,28.0,30.12,West,270,0.0,0.0,75,0.00,,,0.00,Wunderground v.1.15,2013-01-20 09:24:00,
2013-01-20 04:26:00,34.9,28.1,30.12,West,269,0.0,0.0,76,0.00,,,0.00,Wunderground v.1.15,2013-01-20 09:26:00,
2013-01-20 04:27:00,34.8,28.0,30.12,West,270,0.0,0.0,76,0.00,,,0.00,Wunderground v.1.15,2013-01-20 09:27:00,
2013-01-20 04:29:00,34.7,27.9,30.12,West,270,0.0,0.0,76,0.00,,,0.00,Wunderground v.1.15,2013-01-20 09:29:00,
2013-01-20 04:31:00,34.6,28.1,30.12,West,270,0.0,0.0,77,0.00,,,0.00,Wunderground v.1.15,2013-01-20 09:31:00,
2013-01-20 04:33:00,34.5,28.0,30.12,West,270,0.0,0.0,77,0.00,,,0.00,Wunderground v.1.15,2013-01-20 09:33:00,
2013-01-20 04:34:00,34.4,27.9,30.12,West,270,0.0,0.0,77,0.00,,,0.00,Wunderground v.1.15,2013-01-20 09:34:00,
2013-01-20 04:36:00,34.3,28.2,30.12,West,270,0.0,0.0,78,0.00,,,0.00,Wunderground v.1.15,2013-01-20 09:36:00,
2013-01-20 04:38:00,34.3,28.2,30.12,West,270,0.0,0.0,78,0.00,,,0.00,Wunderground v.1.15,2013-01-20 09:38:00,
2013-01-20 04:39:00,34.2,28.1,30.12,West,270,0.0,0.0,78,0.00,,,0.00,Wunderground v.1.15,2013-01-20 09:39:00,
2013-01-20 04:42:00,34.1,28.0,30.12,West,270,0.0,0.0,78,0.00,,,0.00,Wunderground v.1.15,2013-01-20 09:42:00,
2013-01-20 04:43:00,34.0,28.2,30.12,West,270,1.0,1.0,79,0.00,,,0.00,Wunderground v.1.15,2013-01-20 09:43:00,
2013-01-20 04:44:00,34.0,28.2,30.12,West,269,0.0,1.0,79,0.00,,,0.00,Wunderground v.1.15,2013-01-20 09:44:00,
2013-01-20 04:45:00,34.0,28.2,30.12,West,270,1.0,1.0,79,0.00,,,0.00,Wunderground v.1.15,2013-01-20 09:45:00,
2013-01-20 04:47:00,34.1,28.3,30.12,West,276,1.0,1.0,79,0.00,,,0.00,Wunderground v.1.15,2013-01-20 09:47:00,
2013-01-20 04:48:00,34.1,28.0,30.12,WSW,238,1.0,1.0,78,0.00,,,0.00,Wunderground v.1.15,2013-01-20 09:48:00,
2013-01-20 04:50:00,34.2,28.1,30.12,WSW,238,0.0,1.0,78,0.00,,,0.00,Wunderground v.1.15,2013-01-20 09:50:00,
2013-01-20 04:52:00,34.2,28.1,30.12,WSW,238,0.0,1.0,78,0.00,,,0.00,Wunderground v.1.15,2013-01-20 09:52:00,
2013-01-20 04:54:00,34.3,28.2,30.12,WSW,238,0.0,1.0,78,0.00,,,0.00,Wunderground v.1.15,2013-01-20 09:54:00,
2013-01-20 04:55:00,34.3,28.2,30.12,WSW,238,0.0,1.0,78,0.00,,,0.00,Wunderground v.1.15,2013-01-20 09:55:00,
2013-01-20 04:57:00,34.2,28.1,30.12,WSW,238,0.0,1.0,78,0.00,,,0.00,Wunderground v.1.15,2013-01-20 09:57:00,
2013-01-20 05:00:00,34.2,28.1,30.12,WSW,245,1.0,1.0,78,0.00,,,0.00,Wunderground v.1.15,2013-01-20 10:00:00,
2013-01-20 05:01:00,34.2,28.1,30.12,WSW,248,1.0,2.0,78,0.00,,,0.00,Wunderground v.1.15,2013-01-20 10:01:00,
2013-01-20 05:03:00,34.2,28.1,30.12,WSW,248,0.0,2.0,78,0.00,,,0.00,Wunderground v.1.15,2013-01-20 10:03:00,
2013-01-20 05:05:00,34.2,28.1,30.12,WSW,248,0.0,2.0,78,0.00,,,0.00,Wunderground v.1.15,2013-01-20 10:05:00,
2013-01-20 05:06:00,34.1,28.0,30.12,WSW,248,0.0,2.0,78,0.00,,,0.00,Wunderground v.1.15,2013-01-20 10:06:00,
2013-01-20 05:08:00,34.1,28.0,30.12,WSW,247,0.0,2.0,78,0.00,,,0.00,Wunderground v.1.15,2013-01-20 10:08:00,
2013-01-20 05:10:00,34.1,28.0,30.12,WSW,250,0.0,0.0,78,0.00,,,0.00,Wunderground v.1.15,2013-01-20 10:10:00,
2013-01-20 05:11:00,34.0,27.9,30.12,WSW,250,0.0,0.0,78,0.00,,,0.00,Wunderground v.1.15,2013-01-20 10:11:00,
2013-01-20 05:13:00,33.9,27.8,30.12,WSW,250,0.0,0.0,78,0.00,,,0.00,Wunderground v.1.15,2013-01-20 10:13:00,
2013-01-20 05:15:00,33.9,28.1,30.12,WSW,250,0.0,0.0,79,0.00,,,0.00,Wunderground v.1.15,2013-01-20 10:15:00,
2013-01-20 05:16:00,33.8,28.0,30.12,WSW,250,0.0,0.0,79,0.00,,,0.00,Wunderground v.1.15,2013-01-20 10:16:00,
2013-01-20 05:18:00,33.7,27.9,30.12,WSW,250,0.0,0.0,79,0.00,,,0.00,Wunderground v.1.15,2013-01-20 10:18:00,
2013-01-20 05:20:00,33.7,27.9,30.12,WSW,251,0.0,0.0,79,0.00,,,0.00,Wunderground v.1.15,2013-01-20 10:20:00,
2013-01-20 05:21:00,33.7,27.9,30.12,WSW,250,0.0,0.0,79,0.00,,,0.00,Wunderground v.1.15,2013-01-20 10:21:00,
2013-01-20 05:23:00,33.5,27.7,30.12,WSW,250,0.0,0.0,79,0.00,,,0.00,Wunderground v.1.15,2013-01-20 10:23:00,
2013-01-20 05:25:00,33.4,27.9,30.12,WSW,250,0.0,0.0,80,0.00,,,0.00,Wunderground v.1.15,2013-01-20 10:25:00,
2013-01-20 05:26:00,33.4,27.9,30.12,WSW,243,0.0,0.0,80,0.00,,,0.00,Wunderground v.1.15,2013-01-20 10:26:00,
2013-01-20 05:28:00,33.5,28.0,30.12,WSW,247,0.0,0.0,80,0.00,,,0.00,Wunderground v.1.15,2013-01-20 10:28:00,
2013-01-20 05:30:00,33.6,28.1,30.12,WSW,238,0.0,0.0,80,0.00,,,0.00,Wunderground v.1.15,2013-01-20 10:30:00,
2013-01-20 05:31:00,33.6,27.8,30.12,WSW,238,0.0,0.0,79,0.00,,,0.00,Wunderground v.1.15,2013-01-20 10:31:00,
2013-01-20 05:33:00,33.8,28.0,30.12,WSW,238,0.0,0.0,79,0.00,,,0.00,Wunderground v.1.15,2013-01-20 10:33:00,
2013-01-20 05:35:00,33.9,28.1,30.12,WSW,238,0.0,0.0,79,0.00,,,0.00,Wunderground v.1.15,2013-01-20 10:35:00,
2013-01-20 05:36:00,33.9,28.1,30.12,WSW,238,0.0,0.0,79,0.00,,,0.00,Wunderground v.1.15,2013-01-20 10:36:00,
2013-01-20 05:38:00,33.9,27.8,30.12,WSW,238,0.0,0.0,78,0.00,,,0.00,Wunderground v.1.15,2013-01-20 10:38:00,
2013-01-20 05:40:00,33.9,27.8,30.12,WSW,245,0.0,0.0,78,0.00,,,0.00,Wunderground v.1.15,2013-01-20 10:40:00,
2013-01-20 05:41:00,33.9,27.8,30.12,WSW,239,0.0,0.0,78,0.00,,,0.00,Wunderground v.1.15,2013-01-20 10:41:00,
2013-01-20 05:42:00,33.9,27.8,30.12,WSW,239,0.0,0.0,78,0.00,,,0.00,Wunderground v.1.15,2013-01-20 10:42:00,
2013-01-20 05:43:00,34.0,27.9,30.12,SW,236,0.0,0.0,78,0.00,,,0.00,Wunderground v.1.15,2013-01-20 10:43:00,
2013-01-20 05:45:00,34.1,28.0,30.12,SW,236,0.0,0.0,78,0.00,,,0.00,Wunderground v.1.15,2013-01-20 10:45:00,
2013-01-20 05:46:00,34.1,28.0,30.11,SW,236,0.0,0.0,78,0.00,,,0.00,Wunderground v.1.15,2013-01-20 10:46:00,
2013-01-20 05:47:00,34.1,28.0,30.11,SW,236,0.0,0.0,78,0.00,,,0.00,Wunderground v.1.15,2013-01-20 10:47:00,
2013-01-20 05:48:00,34.2,28.1,30.11,SW,236,0.0,0.0,78,0.00,,,0.00,Wunderground v.1.15,2013-01-20 10:48:00,
2013-01-20 05:50:00,34.2,28.1,30.11,WSW,237,0.0,0.0,78,0.00,,,0.00,Wunderground v.1.15,2013-01-20 10:50:00,
2013-01-20 05:51:00,34.2,28.1,30.11,SW,236,0.0,0.0,78,0.00,,,0.00,Wunderground v.1.15,2013-01-20 10:51:00,
2013-01-20 05:52:00,34.2,28.1,30.11,SW,234,0.0,0.0,78,0.00,,,0.00,Wunderground v.1.15,2013-01-20 10:52:00,
2013-01-20 05:54:00,34.2,28.1,30.11,SW,232,0.0,0.0,78,0.00,,,0.00,Wunderground v.1.15,2013-01-20 10:54:00,
2013-01-20 05:55:00,34.2,28.1,30.11,WSW,245,0.0,0.0,78,0.00,,,0.00,Wunderground v.1.15,2013-01-20 10:55:00,
2013-01-20 05:56:00,34.2,28.1,30.11,WSW,245,0.0,0.0,78,0.00,,,0.00,Wunderground v.1.15,2013-01-20 10:56:00,
2013-01-20 05:57:00,34.3,28.2,30.11,WSW,245,0.0,0.0,78,0.00,,,0.00,Wunderground v.1.15,2013-01-20 10:57:00,
2013-01-20 05:59:00,34.3,28.2,30.11,WSW,245,0.0,0.0,78,0.00,,,0.00,Wunderground v.1.15,2013-01-20 10:59:00,
2013-01-20 06:01:00,34.4,27.9,30.11,WSW,240,0.0,0.0,77,0.00,,,0.00,Wunderground v.1.15,2013-01-20 11:01:00,
2013-01-20 06:02:00,34.4,27.9,30.11,SW,232,0.0,0.0,77,0.00,,,0.00,Wunderground v.1.15,2013-01-20 11:02:00,
2013-01-20 06:03:00,34.4,27.9,30.11,SW,232,0.0,0.0,77,0.00,,,0.00,Wunderground v.1.15,2013-01-20 11:03:00,
2013-01-20 06:04:00,34.4,27.9,30.11,SW,232,0.0,0.0,77,0.00,,,0.00,Wunderground v.1.15,2013-01-20 11:04:00,
2013-01-20 06:06:00,34.4,27.9,30.11,SW,232,0.0,0.0,77,0.00,,,0.00,Wunderground v.1.15,2013-01-20 11:06:00,
2013-01-20 06:07:00,34.3,27.8,30.11,SW,232,0.0,0.0,77,0.00,,,0.00,Wunderground v.1.15,2013-01-20 11:07:00,
2013-01-20 06:08:00,34.4,27.9,30.11,SW,232,0.0,0.0,77,0.00,,,0.00,Wunderground v.1.15,2013-01-20 11:08:00,
2013-01-20 06:09:00,34.5,28.0,30.11,SW,232,0.0,0.0,77,0.00,,,0.00,Wunderground v.1.15,2013-01-20 11:09:00,
2013-01-20 06:11:00,34.4,27.9,30.11,SW,228,0.0,0.0,77,0.00,,,0.00,Wunderground v.1.15,2013-01-20 11:11:00,
2013-01-20 06:12:00,34.5,28.0,30.11,SW,228,0.0,0.0,77,0.00,,,0.00,Wunderground v.1.15,2013-01-20 11:12:00,
2013-01-20 06:13:00,34.4,27.9,30.11,SW,228,0.0,0.0,77,0.00,,,0.00,Wunderground v.1.15,2013-01-20 11:13:00,
2013-01-20 06:14:00,34.4,27.9,30.11,SW,227,0.0,0.0,77,0.00,,,0.00,Wunderground v.1.15,2013-01-20 11:14:00,
2013-01-20 06:16:00,34.4,27.9,30.11,SW,228,0.0,0.0,77,0.00,,,0.00,Wunderground v.1.15,2013-01-20 11:16:00,
2013-01-20 06:17:00,34.4,27.9,30.11,SW,234,0.0,0.0,77,0.00,,,0.00,Wunderground v.1.15,2013-01-20 11:17:00,
2013-01-20 06:18:00,34.4,27.9,30.11,SW,234,0.0,0.0,77,0.00,,,0.00,Wunderground v.1.15,2013-01-20 11:18:00,
2013-01-20 06:20:00,34.4,27.9,30.11,SW,235,0.0,0.0,77,0.00,,,0.00,Wunderground v.1.15,2013-01-20 11:20:00,
2013-01-20 06:22:00,34.3,27.8,30.11,WSW,239,0.0,0.0,77,0.00,,,0.00,Wunderground v.1.15,2013-01-20 11:22:00,
2013-01-20 06:24:00,34.2,27.7,30.11,SW,236,0.0,0.0,77,0.00,,,0.00,Wunderground v.1.15,2013-01-20 11:24:00,
2013-01-20 06:25:00,34.3,28.2,30.11,WSW,239,0.0,0.0,78,0.00,,,0.00,Wunderground v.1.15,2013-01-20 11:25:00,
2013-01-20 06:28:00,34.1,28.0,30.12,WSW,252,0.0,0.0,78,0.00,,,0.00,Wunderground v.1.15,2013-01-20 11:28:00,
2013-01-20 06:29:00,34.0,27.9,30.12,WSW,252,0.0,0.0,78,0.00,,,0.00,Wunderground v.1.15,2013-01-20 11:29:00,
2013-01-20 06:30:00,33.8,27.7,30.11,WSW,252,0.0,0.0,78,0.00,,,0.00,Wunderground v.1.15,2013-01-20 11:30:00,
2013-01-20 06:33:00,33.7,27.9,30.11,SW,231,0.0,0.0,79,0.00,,,0.00,Wunderground v.1.15,2013-01-20 11:33:00,
2013-01-20 06:34:00,33.6,27.8,30.11,SW,231,0.0,0.0,79,0.00,,,0.00,Wunderground v.1.15,2013-01-20 11:34:00,
2013-01-20 06:35:00,33.7,27.9,30.11,SW,232,0.0,0.0,79,0.00,,,0.00,Wunderground v.1.15,2013-01-20 11:35:00,
2013-01-20 06:38:00,33.7,27.9,30.12,WSW,245,0.0,0.0,79,0.00,,,0.00,Wunderground v.1.15,2013-01-20 11:38:00,
2013-01-20 06:39:00,33.7,27.9,30.11,SW,236,0.0,0.0,79,0.00,,,0.00,Wunderground v.1.15,2013-01-20 11:39:00,
2013-01-20 06:40:00,33.7,27.9,30.11,SW,236,0.0,0.0,79,0.00,,,0.00,Wunderground v.1.15,2013-01-20 11:40:00,
2013-01-20 06:43:00,33.6,27.8,30.12,SW,232,0.0,0.0,79,0.00,,,0.00,Wunderground v.1.15,2013-01-20 11:43:00,
2013-01-20 06:44:00,33.6,27.8,30.11,SW,233,0.0,0.0,79,0.00,,,0.00,Wunderground v.1.15,2013-01-20 11:44:00,
2013-01-20 06:45:00,33.6,27.8,30.12,SW,233,0.0,0.0,79,0.00,,,0.00,Wunderground v.1.15,2013-01-20 11:45:00,
2013-01-20 06:48:00,33.7,27.9,30.12,SW,232,0.0,0.0,79,0.00,,,0.00,Wunderground v.1.15,2013-01-20 11:48:00,
2013-01-20 06:49:00,33.7,27.9,30.12,SW,228,2.0,2.0,79,0.00,,,0.00,Wunderground v.1.15,2013-01-20 11:49:00,
2013-01-20 06:50:00,33.7,27.9,30.11,SW,228,2.0,2.0,79,0.00,,,0.00,Wunderground v.1.15,2013-01-20 11:50:00,
2013-01-20 06:54:00,34.0,28.2,30.11,SW,235,2.0,3.0,79,0.00,,,0.00,Wunderground v.1.15,2013-01-20 11:54:00,
2013-01-20 06:56:00,34.1,28.3,30.11,SW,219,3.0,3.0,79,0.00,,,0.00,Wunderground v.1.15,2013-01-20 11:56:00,
2013-01-20 06:59:00,34.3,28.2,30.11,SW,228,3.0,3.0,78,0.00,,,0.00,Wunderground v.1.15,2013-01-20 11:59:00,
2013-01-20 07:00:00,34.4,28.2,30.11,SW,232,2.0,2.0,78,0.00,,,0.00,Wunderground v.1.15,2013-01-20 12:00:00,
2013-01-20 07:01:00,34.5,28.3,30.11,SW,215,1.0,4.0,78,0.00,,,0.00,Wunderground v.1.15,2013-01-20 12:01:00,
2013-01-20 07:04:00,34.7,28.5,30.11,SW,224,4.0,5.0,78,0.00,,,0.00,Wunderground v.1.15,2013-01-20 12:04:00,
2013-01-20 07:05:00,34.8,28.3,30.11,SW,219,2.0,5.0,77,0.00,,,0.00,Wunderground v.1.15,2013-01-20 12:05:00,
2013-01-20 07:06:00,35.0,28.5,30.11,SW,215,2.0,5.0,77,0.00,,,0.00,Wunderground v.1.15,2013-01-20 12:06:00,
2013-01-20 07:09:00,35.1,28.6,30.11,SSW,198,3.0,5.0,77,0.00,,,0.00,Wunderground v.1.15,2013-01-20 12:09:00,
2013-01-20 07:10:00,35.2,28.7,30.11,SSW,203,2.0,3.0,77,0.00,,,0.00,Wunderground v.1.15,2013-01-20 12:10:00,
2013-01-20 07:13:00,35.3,28.5,30.11,SSW,201,1.0,5.0,76,0.00,,,0.00,Wunderground v.1.15,2013-01-20 12:13:00,
2013-01-20 07:14:00,35.4,28.6,30.11,SW,215,2.0,5.0,76,0.00,,,0.00,Wunderground v.1.15,2013-01-20 12:14:00,
2013-01-20 07:15:00,35.4,28.6,30.11,SW,225,2.0,5.0,76,0.00,,,0.00,Wunderground v.1.15,2013-01-20 12:15:00,
2013-01-20 07:18:00,35.4,28.6,30.11,WSW,249,2.0,5.0,76,0.00,,,0.00,Wunderground v.1.15,2013-01-20 12:18:00,
2013-01-20 07:19:00,35.3,28.5,30.11,SW,228,2.0,5.0,76,0.00,,,0.00,Wunderground v.1.15,2013-01-20 12:19:00,
2013-01-20 07:20:00,35.4,28.6,30.11,SW,215,2.0,3.0,76,0.00,,,0.00,Wunderground v.1.15,2013-01-20 12:20:00,
2013-01-20 07:24:00,35.4,28.6,30.11,SW,226,2.0,3.0,76,0.00,,,0.00,Wunderground v.1.15,2013-01-20 12:24:00,
2013-01-20 07:25:00,35.3,28.5,30.11,SW,224,1.0,3.0,76,0.00,,,0.00,Wunderground v.1.15,2013-01-20 12:25:00,
2013-01-20 07:29:00,35.3,28.5,30.11,WSW,245,2.0,4.0,76,0.00,,,0.00,Wunderground v.1.15,2013-01-20 12:29:00,
2013-01-20 07:30:00,35.2,28.4,30.11,SW,233,2.0,2.0,76,0.00,,,0.00,Wunderground v.1.15,2013-01-20 12:30:00,
2013-01-20 07:34:00,35.0,28.5,30.12,West,266,1.0,2.0,77,0.00,,,0.00,Wunderground v.1.15,2013-01-20 12:34:00,
2013-01-20 07:35:00,34.9,28.4,30.12,West,271,1.0,2.0,77,0.00,,,0.00,Wunderground v.1.15,2013-01-20 12:35:00,
2013-01-20 07:39:00,33.9,28.1,30.12,West,281,1.0,2.0,79,0.00,,,0.00,Wunderground v.1.15,2013-01-20 12:39:00,
2013-01-20 07:40:00,33.8,28.0,30.12,West,281,1.0,1.0,79,0.00,,,0.00,Wunderground v.1.15,2013-01-20 12:40:00,
2013-01-20 07:41:00,33.6,28.1,30.12,West,281,1.0,1.0,80,0.00,,,0.00,Wunderground v.1.15,2013-01-20 12:41:00,
2013-01-20 07:44:00,33.2,28.0,30.12,West,269,1.0,2.0,81,0.00,,,0.00,Wunderground v.1.15,2013-01-20 12:44:00,
2013-01-20 07:45:00,33.1,27.9,30.12,West,278,1.0,2.0,81,0.00,,,0.00,Wunderground v.1.15,2013-01-20 12:45:00,
2013-01-20 07:46:00,33.1,27.9,30.12,West,278,1.0,2.0,81,0.00,,,0.00,Wunderground v.1.15,2013-01-20 12:46:00,
2013-01-20 07:49:00,33.1,27.9,30.12,WSW,238,1.0,2.0,81,0.00,,,0.00,Wunderground v.1.15,2013-01-20 12:49:00,
2013-01-20 07:50:00,33.1,27.9,30.12,WSW,238,1.0,1.0,81,0.00,,,0.00,Wunderground v.1.15,2013-01-20 12:50:00,
2013-01-20 07:51:00,33.1,27.9,30.12,WSW,238,0.0,1.0,81,0.00,,,0.00,Wunderground v.1.15,2013-01-20 12:51:00,
2013-01-20 07:54:00,33.0,28.1,30.13,WSW,238,1.0,2.0,82,0.00,,,0.00,Wunderground v.1.15,2013-01-20 12:54:00,
2013-01-20 07:55:00,33.0,28.1,30.13,WSW,238,1.0,2.0,82,0.00,,,0.00,Wunderground v.1.15,2013-01-20 12:55:00,
2013-01-20 07:56:00,32.9,28.0,30.13,WSW,238,2.0,2.0,82,0.00,,,0.00,Wunderground v.1.15,2013-01-20 12:56:00,
2013-01-20 07:59:00,32.4,27.8,30.13,West,270,1.0,2.0,83,0.00,,,0.00,Wunderground v.1.15,2013-01-20 12:59:00,
2013-01-20 08:00:00,32.2,27.9,30.13,West,264,1.0,2.0,84,0.00,,,0.00,Wunderground v.1.15,2013-01-20 13:00:00,
2013-01-20 08:01:00,32.1,27.8,30.13,West,264,1.0,2.0,84,0.00,,,0.00,Wunderground v.1.15,2013-01-20 13:01:00,
2013-01-20 08:04:00,31.3,27.3,30.13,West,265,1.0,2.0,85,0.00,,,0.00,Wunderground v.1.15,2013-01-20 13:04:00,
2013-01-20 08:05:00,31.2,27.2,30.13,West,264,1.0,2.0,85,0.00,,,0.00,Wunderground v.1.15,2013-01-20 13:05:00,
2013-01-20 08:06:00,31.1,27.1,30.13,West,264,0.0,2.0,85,0.00,,,0.00,Wunderground v.1.15,2013-01-20 13:06:00,
2013-01-20 08:10:00,30.8,27.1,30.13,West,264,1.0,1.0,86,0.00,,,0.00,Wunderground v.1.15,2013-01-20 13:10:00,
2013-01-20 08:11:00,30.8,27.4,30.13,SW,232,2.0,2.0,87,0.00,,,0.00,Wunderground v.1.15,2013-01-20 13:11:00,
2013-01-20 08:12:00,30.8,27.4,30.13,SW,232,1.0,2.0,87,0.00,,,0.00,Wunderground v.1.15,2013-01-20 13:12:00,
2013-01-20 08:14:00,31.3,27.9,30.13,SW,226,2.0,2.0,87,0.00,,,0.00,Wunderground v.1.15,2013-01-20 13:14:00,
2013-01-20 08:15:00,31.4,27.7,30.13,SW,233,2.0,2.0,86,0.00,,,0.00,Wunderground v.1.15,2013-01-20 13:15:00,
2013-01-20 08:16:00,31.7,28.0,30.13,WSW,238,2.0,2.0,86,0.00,,,0.00,Wunderground v.1.15,2013-01-20 13:16:00,
2013-01-20 08:17:00,31.9,27.9,30.14,WSW,238,2.0,2.0,85,0.00,,,0.00,Wunderground v.1.15,2013-01-20 13:17:00,
2013-01-20 08:20:00,32.1,28.1,30.13,SW,233,2.0,2.0,85,0.00,,,0.00,Wunderground v.1.15,2013-01-20 13:20:00,
2013-01-20 08:21:00,32.2,27.9,30.13,WSW,248,1.0,3.0,84,0.00,,,0.00,Wunderground v.1.15,2013-01-20 13:21:00,
2013-01-20 08:23:00,32.4,28.1,30.13,WSW,243,2.0,3.0,84,0.00,,,0.00,Wunderground v.1.15,2013-01-20 13:23:00,
2013-01-20 08:25:00,32.6,28.0,30.13,SW,231,1.0,3.0,83,0.00,,,0.00,Wunderground v.1.15,2013-01-20 13:25:00,
2013-01-20 08:26:00,32.9,28.3,30.13,SW,232,1.0,3.0,83,0.00,,,0.00,Wunderground v.1.15,2013-01-20 13:26:00,
2013-01-20 08:28:00,33.1,28.5,30.13,SW,236,1.0,3.0,83,0.00,,,0.00,Wunderground v.1.15,2013-01-20 13:28:00,
2013-01-20 08:30:00,33.3,28.4,30.14,SW,226,2.0,2.0,82,0.00,,,0.00,Wunderground v.1.15,2013-01-20 13:30:00,
2013-01-20 08:31:00,33.5,28.6,30.14,SW,225,3.0,3.0,82,0.00,,,0.00,Wunderground v.1.15,2013-01-20 13:31:00,
2013-01-20 08:33:00,33.6,28.4,30.13,SW,226,2.0,3.0,81,0.00,,,0.00,Wunderground v.1.15,2013-01-20 13:33:00,
2013-01-20 08:35:00,33.9,28.7,30.13,SW,228,2.0,3.0,81,0.00,,,0.00,Wunderground v.1.15,2013-01-20 13:35:00,
2013-01-20 08:37:00,34.0,28.5,30.13,SW,217,2.0,3.0,80,0.00,,,0.00,Wunderground v.1.15,2013-01-20 13:37:00,
2013-01-20 08:38:00,34.1,28.6,30.13,SW,215,1.0,3.0,80,0.00,,,0.00,Wunderground v.1.15,2013-01-20 13:38:00,
2013-01-20 08:40:00,34.3,28.8,30.13,SW,231,2.0,2.0,80,0.00,,,0.00,Wunderground v.1.15,2013-01-20 13:40:00,
2013-01-20 08:42:00,34.5,28.7,30.13,SW,225,3.0,4.0,79,0.00,,,0.00,Wunderground v.1.15,2013-01-20 13:42:00,
2013-01-20 08:44:00,34.6,28.8,30.13,SW,224,2.0,4.0,79,0.00,,,0.00,Wunderground v.1.15,2013-01-20 13:44:00,
2013-01-20 08:45:00,34.7,28.9,30.13,SSW,208,1.0,4.0,79,0.00,,,0.00,Wunderground v.1.15,2013-01-20 13:45:00,
2013-01-20 08:47:00,34.9,29.0,30.13,SW,221,1.0,4.0,79,0.00,,,0.00,Wunderground v.1.15,2013-01-20 13:47:00,
2013-01-20 08:49:00,35.0,28.8,30.13,SW,226,3.0,4.0,78,0.00,,,0.00,Wunderground v.1.15,2013-01-20 13:49:00,
2013-01-20 08:50:00,35.1,28.9,30.13,SW,225,2.0,2.0,78,0.00,,,0.00,Wunderground v.1.15,2013-01-20 13:50:00,
2013-01-20 08:51:00,35.2,29.0,30.13,SW,226,3.0,3.0,78,0.00,,,0.00,Wunderground v.1.15,2013-01-20 13:51:00,
2013-01-20 08:52:00,35.3,28.8,30.13,SW,218,2.0,3.0,77,0.00,,,0.00,Wunderground v.1.15,2013-01-20 13:52:00,
2013-01-20 08:54:00,35.5,29.0,30.13,SW,215,3.0,4.0,77,0.00,,,0.00,Wunderground v.1.15,2013-01-20 13:54:00,
2013-01-20 08:55:00,35.5,29.0,30.13,WSW,248,2.0,4.0,77,0.00,,,0.00,Wunderground v.1.15,2013-01-20 13:55:00,
2013-01-20 08:56:00,35.7,29.2,30.13,SW,233,2.0,4.0,77,0.00,,,0.00,Wunderground v.1.15,2013-01-20 13:56:00,
2013-01-20 08:57:00,35.8,29.3,30.13,SW,233,1.0,4.0,77,0.00,,,0.00,Wunderground v.1.15,2013-01-20 13:57:00,
2013-01-20 08:59:00,35.9,29.4,30.13,SW,224,2.0,4.0,77,0.00,,,0.00,Wunderground v.1.15,2013-01-20 13:59:00,
2013-01-20 09:00:00,36.1,29.3,30.13,SSW,212,2.0,3.0,76,0.00,,,0.00,Wunderground v.1.15,2013-01-20 14:00:00,
2013-01-20 09:01:00,36.2,29.4,30.13,SSW,208,3.0,3.0,76,0.00,,,0.00,Wunderground v.1.15,2013-01-20 14:01:00,
2013-01-20 09:03:00,36.3,29.5,30.13,SW,229,2.0,3.0,76,0.00,,,0.00,Wunderground v.1.15,2013-01-20 14:03:00,
2013-01-20 09:04:00,36.5,29.7,30.13,SSW,212,2.0,4.0,76,0.00,,,0.00,Wunderground v.1.15,2013-01-20 14:04:00,
2013-01-20 09:06:00,36.8,29.6,30.13,SW,222,0.0,4.0,75,0.00,,,0.00,Wunderground v.1.15,2013-01-20 14:06:00,
2013-01-20 09:08:00,37.0,30.1,30.13,West,259,1.0,4.0,76,0.00,,,0.00,Wunderground v.1.15,2013-01-20 14:08:00,
2013-01-20 09:09:00,37.1,29.9,30.13,SW,228,1.0,2.0,75,0.00,,,0.00,Wunderground v.1.15,2013-01-20 14:09:00,
2013-01-20 09:11:00,37.3,30.1,30.13,SW,224,3.0,4.0,75,0.00,,,0.00,Wunderground v.1.15,2013-01-20 14:11:00,
2013-01-20 09:13:00,37.7,30.2,30.13,SSW,211,3.0,4.0,74,0.00,,,0.00,Wunderground v.1.15,2013-01-20 14:13:00,
2013-01-20 09:14:00,37.8,30.3,30.13,SW,232,3.0,4.0,74,0.00,,,0.00,Wunderground v.1.15,2013-01-20 14:14:00,
2013-01-20 09:16:00,38.1,30.2,30.13,WSW,248,2.0,4.0,73,0.00,,,0.00,Wunderground v.1.15,2013-01-20 14:16:00,
2013-01-20 09:17:00,38.2,30.3,30.13,SW,222,2.0,4.0,73,0.00,,,0.00,Wunderground v.1.15,2013-01-20 14:17:00,
2013-01-20 09:18:00,38.4,30.5,30.13,SW,225,1.0,4.0,73,0.00,,,0.00,Wunderground v.1.15,2013-01-20 14:18:00,
2013-01-20 09:19:00,38.5,30.3,30.13,SSW,205,1.0,2.0,72,0.00,,,0.00,Wunderground v.1.15,2013-01-20 14:19:00,
2013-01-20 09:21:00,38.7,30.4,30.13,SW,232,1.0,2.0,72,0.00,,,0.00,Wunderground v.1.15,2013-01-20 14:21:00,
2013-01-20 09:22:00,38.9,30.6,30.13,SW,228,1.0,2.0,72,0.00,,,0.00,Wunderground v.1.15,2013-01-20 14:22:00,
2013-01-20 09:24:00,39.1,30.8,30.13,SW,233,1.0,2.0,72,0.00,,,0.00,Wunderground v.1.15,2013-01-20 14:24:00,
2013-01-20 09:25:00,39.2,30.9,30.13,WSW,256,1.0,2.0,72,0.00,,,0.00,Wunderground v.1.15,2013-01-20 14:25:00,
2013-01-20 09:27:00,39.6,30.6,30.13,West,266,1.0,2.0,70,0.00,,,0.00,Wunderground v.1.15,2013-01-20 14:27:00,
2013-01-20 09:29:00,39.9,31.3,30.14,WSW,245,1.0,3.0,71,0.00,,,0.00,Wunderground v.1.15,2013-01-20 14:29:00,
2013-01-20 09:30:00,40.1,31.1,30.14,WSW,245,0.0,1.0,70,0.00,,,0.00,Wunderground v.1.15,2013-01-20 14:30:00,
2013-01-20 09:32:00,40.3,32.0,30.14,WSW,245,1.0,1.0,72,0.00,,,0.00,Wunderground v.1.15,2013-01-20 14:32:00,
2013-01-20 09:34:00,40.6,31.6,30.14,WSW,248,1.0,2.0,70,0.00,,,0.00,Wunderground v.1.15,2013-01-20 14:34:00,
2013-01-20 09:35:00,40.7,31.7,30.14,WSW,248,0.0,2.0,70,0.00,,,0.00,Wunderground v.1.15,2013-01-20 14:35:00,
2013-01-20 09:37:00,40.9,31.5,30.14,SW,219,1.0,3.0,69,0.00,,,0.00,Wunderground v.1.15,2013-01-20 14:37:00,
2013-01-20 09:39:00,41.2,32.2,30.14,SW,219,0.0,3.0,70,0.00,,,0.00,Wunderground v.1.15,2013-01-20 14:39:00,
2013-01-20 09:40:00,41.3,32.6,30.14,SW,219,0.0,1.0,71,0.00,,,0.00,Wunderground v.1.15,2013-01-20 14:40:00,
2013-01-20 09:42:00,41.5,32.8,30.14,SW,219,0.0,1.0,71,0.00,,,0.00,Wunderground v.1.15,2013-01-20 14:42:00,
2013-01-20 09:44:00,41.7,33.3,30.14,SW,219,0.0,1.0,72,0.00,,,0.00,Wunderground v.1.15,2013-01-20 14:44:00,
2013-01-20 09:45:00,41.8,32.7,30.14,SW,220,0.0,1.0,70,0.00,,,0.00,Wunderground v.1.15,2013-01-20 14:45:00,
2013-01-20 09:47:00,41.9,32.5,30.14,SW,224,0.0,1.0,69,0.00,,,0.00,Wunderground v.1.15,2013-01-20 14:47:00,
2013-01-20 09:49:00,42.2,32.8,30.14,NNW,343,0.0,0.0,69,0.00,,,0.00,Wunderground v.1.15,2013-01-20 14:49:00,
2013-01-20 09:50:00,42.2,32.8,30.14,NNW,342,0.0,0.0,69,0.00,,,0.00,Wunderground v.1.15,2013-01-20 14:50:00,
2013-01-20 09:52:00,42.4,32.6,30.14,WNW,288,2.0,3.0,68,0.00,,,0.00,Wunderground v.1.15,2013-01-20 14:52:00,
2013-01-20 09:53:00,42.5,32.7,30.14,West,259,1.0,3.0,68,0.00,,,0.00,Wunderground v.1.15,2013-01-20 14:53:00,
2013-01-20 09:55:00,42.9,33.1,30.14,West,281,0.0,3.0,68,0.00,,,0.00,Wunderground v.1.15,2013-01-20 14:55:00,
2013-01-20 09:57:00,43.3,33.1,30.14,West,261,3.0,3.0,67,0.00,,,0.00,Wunderground v.1.15,2013-01-20 14:57:00,
2013-01-20 09:58:00,43.5,32.5,30.14,West,270,1.0,3.0,65,0.00,,,0.00,Wunderground v.1.15,2013-01-20 14:58:00,
2013-01-20 10:00:00,43.8,33.2,30.14,West,281,0.0,1.0,66,0.00,,,0.00,Wunderground v.1.15,2013-01-20 15:00:00,
2013-01-20 10:02:00,44.2,33.2,30.14,WNW,285,1.0,2.0,65,0.00,,,0.00,Wunderground v.1.15,2013-01-20 15:02:00,
2013-01-20 10:03:00,44.5,33.8,30.14,WNW,285,0.0,2.0,66,0.00,,,0.00,Wunderground v.1.15,2013-01-20 15:03:00,
2013-01-20 10:05:00,44.7,33.3,30.14,WNW,295,1.0,3.0,64,0.00,,,0.00,Wunderground v.1.15,2013-01-20 15:05:00,
2013-01-20 10:07:00,45.1,33.2,30.14,SW,228,2.0,3.0,63,0.00,,,0.00,Wunderground v.1.15,2013-01-20 15:07:00,
2013-01-20 10:08:00,45.3,33.4,30.14,WSW,256,1.0,3.0,63,0.00,,,0.00,Wunderground v.1.15,2013-01-20 15:08:00,
2013-01-20 10:10:00,45.6,32.9,30.14,WSW,246,1.0,4.0,61,0.00,,,0.00,Wunderground v.1.15,2013-01-20 15:10:00,
2013-01-20 10:12:00,45.9,32.8,30.14,WSW,250,1.0,4.0,60,0.00,,,0.00,Wunderground v.1.15,2013-01-20 15:12:00,
2013-01-20 10:13:00,46.1,33.0,30.14,WSW,238,2.0,4.0,60,0.00,,,0.00,Wunderground v.1.15,2013-01-20 15:13:00,
2013-01-20 10:15:00,46.5,33.4,30.14,West,277,1.0,4.0,60,0.00,,,0.00,Wunderground v.1.15,2013-01-20 15:15:00,
2013-01-20 10:16:00,46.5,33.4,30.14,WSW,255,2.0,4.0,60,0.00,,,0.00,Wunderground v.1.15,2013-01-20 15:16:00,
2013-01-20 10:17:00,46.7,33.1,30.14,WSW,256,1.0,4.0,59,0.00,,,0.00,Wunderground v.1.15,2013-01-20 15:17:00,
2013-01-20 10:19:00,47.0,33.4,30.14,West,267,1.0,4.0,59,0.00,,,0.00,Wunderground v.1.15,2013-01-20 15:19:00,
2013-01-20 10:21:00,47.3,34.1,30.14,SW,222,1.0,2.0,60,0.00,,,0.00,Wunderground v.1.15,2013-01-20 15:21:00,
2013-01-20 10:22:00,47.5,33.4,30.14,SW,219,0.0,2.0,58,0.00,,,0.00,Wunderground v.1.15,2013-01-20 15:22:00,
2013-01-20 10:24:00,47.7,33.2,30.14,West,277,1.0,2.0,57,0.00,,,0.00,Wunderground v.1.15,2013-01-20 15:24:00,
2013-01-20 10:26:00,48.0,33.9,30.14,WSW,249,2.0,3.0,58,0.00,,,0.00,Wunderground v.1.15,2013-01-20 15:26:00,
2013-01-20 10:27:00,48.2,33.2,30.14,SW,234,2.0,3.0,56,0.00,,,0.00,Wunderground v.1.15,2013-01-20 15:27:00,
2013-01-20 10:30:00,48.5,33.1,30.14,SW,224,2.0,2.0,55,0.00,,,0.00,Wunderground v.1.15,2013-01-20 15:30:00,
2013-01-20 10:31:00,48.6,33.1,30.14,WSW,245,4.0,5.0,55,0.00,,,0.00,Wunderground v.1.15,2013-01-20 15:31:00,
2013-01-20 10:32:00,48.7,33.2,30.14,SW,225,3.0,6.0,55,0.00,,,0.00,Wunderground v.1.15,2013-01-20 15:32:00,
2013-01-20 10:35:00,49.0,33.1,30.14,SW,224,3.0,6.0,54,0.00,,,0.00,Wunderground v.1.15,2013-01-20 15:35:00,
2013-01-20 10:36:00,49.0,33.1,30.14,West,259,3.0,6.0,54,0.00,,,0.00,Wunderground v.1.15,2013-01-20 15:36:00,
2013-01-20 10:37:00,49.2,33.3,30.14,West,276,1.0,6.0,54,0.00,,,0.00,Wunderground v.1.15,2013-01-20 15:37:00,
2013-01-20 10:40:00,49.4,33.4,30.14,SW,236,1.0,3.0,54,0.00,,,0.00,Wunderground v.1.15,2013-01-20 15:40:00,
2013-01-20 10:41:00,49.5,33.5,30.14,West,273,3.0,3.0,54,0.00,,,0.00,Wunderground v.1.15,2013-01-20 15:41:00,
2013-01-20 10:42:00,49.7,33.2,30.14,West,264,2.0,3.0,53,0.00,,,0.00,Wunderground v.1.15,2013-01-20 15:42:00,
2013-01-20 10:45:00,50.1,34.5,30.14,WSW,256,1.0,3.0,55,0.00,,,0.00,Wunderground v.1.15,2013-01-20 15:45:00,
2013-01-20 10:46:00,50.2,34.6,30.14,WNW,285,3.0,3.0,55,0.00,,,0.00,Wunderground v.1.15,2013-01-20 15:46:00,
2013-01-20 10:47:00,50.4,34.4,30.14,WSW,240,3.0,4.0,54,0.00,,,0.00,Wunderground v.1.15,2013-01-20 15:47:00,
2013-01-20 10:50:00,50.8,33.8,30.14,SSW,198,1.0,2.0,52,0.00,,,0.00,Wunderground v.1.15,2013-01-20 15:50:00,
2013-01-20 10:51:00,50.8,33.8,30.14,WSW,238,4.0,4.0,52,0.00,,,0.00,Wunderground v.1.15,2013-01-20 15:51:00,
2013-01-20 10:52:00,51.0,34.5,30.13,West,267,3.0,4.0,53,0.00,,,0.00,Wunderground v.1.15,2013-01-20 15:52:00,
2013-01-20 10:56:00,51.3,34.3,30.13,West,276,0.0,5.0,52,0.00,,,0.00,Wunderground v.1.15,2013-01-20 15:56:00,
2013-01-20 10:57:00,51.4,34.3,30.13,WSW,245,2.0,5.0,52,0.00,,,0.00,Wunderground v.1.15,2013-01-20 15:57:00,
2013-01-20 11:01:00,51.8,34.7,30.13,SW,229,3.0,5.0,52,0.00,,,0.00,Wunderground v.1.15,2013-01-20 16:01:00,
2013-01-20 11:02:00,52.0,34.4,30.13,SW,229,5.0,6.0,51,0.00,,,0.00,Wunderground v.1.15,2013-01-20 16:02:00,
2013-01-20 11:03:00,52.0,34.4,30.13,SW,224,3.0,6.0,51,0.00,,,0.00,Wunderground v.1.15,2013-01-20 16:03:00,
2013-01-20 11:06:00,52.2,34.6,30.13,SW,235,2.0,7.0,51,0.00,,,0.00,Wunderground v.1.15,2013-01-20 16:06:00,
2013-01-20 11:07:00,52.2,34.6,30.13,WSW,248,4.0,7.0,51,0.00,,,0.00,Wunderground v.1.15,2013-01-20 16:07:00,
2013-01-20 11:08:00,52.2,34.6,30.13,WSW,245,3.0,7.0,51,0.00,,,0.00,Wunderground v.1.15,2013-01-20 16:08:00,
2013-01-20 11:11:00,52.3,35.2,30.13,NW,311,2.0,4.0,52,0.00,,,0.00,Wunderground v.1.15,2013-01-20 16:11:00,
2013-01-20 11:12:00,52.4,35.3,30.13,SSW,200,2.0,4.0,52,0.00,,,0.00,Wunderground v.1.15,2013-01-20 16:12:00,
2013-01-20 11:14:00,52.6,35.0,30.12,WSW,240,5.0,6.0,51,0.00,,,0.00,Wunderground v.1.15,2013-01-20 16:14:00,
2013-01-20 11:16:00,52.7,34.1,30.12,WSW,239,2.0,6.0,49,0.00,,,0.00,Wunderground v.1.15,2013-01-20 16:16:00,
2013-01-20 11:17:00,52.8,34.7,30.12,WSW,238,4.0,6.0,50,0.00,,,0.00,Wunderground v.1.15,2013-01-20 16:17:00,
2013-01-20 11:19:00,52.9,34.2,30.12,WSW,240,4.0,7.0,49,0.00,,,0.00,Wunderground v.1.15,2013-01-20 16:19:00,
2013-01-20 11:21:00,53.1,33.9,30.12,SW,218,4.0,7.0,48,0.00,,,0.00,Wunderground v.1.15,2013-01-20 16:21:00,
2013-01-20 11:22:00,53.1,34.4,30.12,SW,232,3.0,7.0,49,0.00,,,0.00,Wunderground v.1.15,2013-01-20 16:22:00,
2013-01-20 11:24:00,53.3,34.1,30.12,WSW,243,1.0,7.0,48,0.00,,,0.00,Wunderground v.1.15,2013-01-20 16:24:00,
2013-01-20 11:26:00,53.5,34.3,30.12,SW,226,2.0,7.0,48,0.00,,,0.00,Wunderground v.1.15,2013-01-20 16:26:00,
2013-01-20 11:27:00,53.5,34.8,30.12,SW,232,3.0,7.0,49,0.00,,,0.00,Wunderground v.1.15,2013-01-20 16:27:00,
2013-01-20 11:29:00,53.6,35.4,30.12,WSW,255,2.0,7.0,50,0.00,,,0.00,Wunderground v.1.15,2013-01-20 16:29:00,
2013-01-20 11:31:00,53.9,35.2,30.12,SSW,212,1.0,4.0,49,0.00,,,0.00,Wunderground v.1.15,2013-01-20 16:31:00,
2013-01-20 11:32:00,53.9,35.2,30.12,SW,218,3.0,4.0,49,0.00,,,0.00,Wunderground v.1.15,2013-01-20 16:32:00,
2013-01-20 11:34:00,54.0,34.7,30.11,WSW,240,4.0,6.0,48,0.00,,,0.00,Wunderground v.1.15,2013-01-20 16:34:00,
2013-01-20 11:36:00,54.4,35.1,30.11,West,271,1.0,7.0,48,0.00,,,0.00,Wunderground v.1.15,2013-01-20 16:36:00,
2013-01-20 11:37:00,54.5,35.2,30.11,South,190,2.0,7.0,48,0.00,,,0.00,Wunderground v.1.15,2013-01-20 16:37:00,
2013-01-20 11:38:00,54.6,35.3,30.11,SW,221,7.0,7.0,48,0.00,,,0.00,Wunderground v.1.15,2013-01-20 16:38:00,
2013-01-20 11:39:00,54.6,34.8,30.11,SW,224,1.0,7.0,47,0.00,,,0.00,Wunderground v.1.15,2013-01-20 16:39:00,
2013-01-20 11:41:00,54.7,34.8,30.11,WSW,238,3.0,5.0,47,0.00,,,0.00,Wunderground v.1.15,2013-01-20 16:41:00,
2013-01-20 11:42:00,54.7,34.8,30.11,WSW,256,4.0,5.0,47,0.00,,,0.00,Wunderground v.1.15,2013-01-20 16:42:00,
2013-01-20 11:43:00,54.7,34.8,30.11,SW,232,6.0,6.0,47,0.00,,,0.00,Wunderground v.1.15,2013-01-20 16:43:00,
2013-01-20 11:44:00,54.8,34.4,30.11,WSW,249,5.0,7.0,46,0.00,,,0.00,Wunderground v.1.15,2013-01-20 16:44:00,
2013-01-20 11:46:00,54.9,35.0,30.11,SW,225,7.0,7.0,47,0.00,,,0.00,Wunderground v.1.15,2013-01-20 16:46:00,
2013-01-20 11:47:00,54.9,34.5,30.10,SW,214,4.0,8.0,46,0.00,,,0.00,Wunderground v.1.15,2013-01-20 16:47:00,
2013-01-20 11:48:00,54.9,35.0,30.10,SSW,212,5.0,8.0,47,0.00,,,0.00,Wunderground v.1.15,2013-01-20 16:48:00,
2013-01-20 11:49:00,54.9,33.9,30.10,SW,214,6.0,6.0,45,0.00,,,0.00,Wunderground v.1.15,2013-01-20 16:49:00,
2013-01-20 11:51:00,54.8,34.4,30.10,WSW,247,5.0,10.0,46,0.00,,,0.00,Wunderground v.1.15,2013-01-20 16:51:00,
2013-01-20 11:52:00,54.8,34.4,30.10,SW,235,5.0,10.0,46,0.00,,,0.00,Wunderground v.1.15,2013-01-20 16:52:00,
2013-01-20 11:54:00,54.8,34.4,30.10,SW,225,4.0,10.0,46,0.00,,,0.00,Wunderground v.1.15,2013-01-20 16:54:00,
2013-01-20 11:55:00,54.8,34.4,30.10,SW,226,6.0,10.0,46,0.00,,,0.00,Wunderground v.1.15,2013-01-20 16:55:00,
2013-01-20 11:56:00,55.0,35.1,30.10,WNW,293,3.0,10.0,47,0.00,,,0.00,Wunderground v.1.15,2013-01-20 16:56:00,
2013-01-20 11:57:00,55.0,35.1,30.10,WNW,290,1.0,10.0,47,0.00,,,0.00,Wunderground v.1.15,2013-01-20 16:57:00,
2013-01-20 11:59:00,55.1,35.7,30.10,WSW,245,4.0,10.0,48,0.00,,,0.00,Wunderground v.1.15,2013-01-20 16:59:00,
2013-01-20 12:00:00,55.2,35.3,30.10,WSW,258,2.0,4.0,47,0.00,,,0.00,Wunderground v.1.15,2013-01-20 17:00:00,
2013-01-20 12:01:00,55.3,34.9,30.10,NW,310,2.0,4.0,46,0.00,,,0.00,Wunderground v.1.15,2013-01-20 17:01:00,
2013-01-20 12:03:00,55.3,34.9,30.10,WSW,250,4.0,6.0,46,0.00,,,0.00,Wunderground v.1.15,2013-01-20 17:03:00,
2013-01-20 12:04:00,55.3,34.9,30.10,SW,218,0.0,6.0,46,0.00,,,0.00,Wunderground v.1.15,2013-01-20 17:04:00,
2013-01-20 12:05:00,55.3,35.4,30.09,SW,218,0.0,6.0,47,0.00,,,0.00,Wunderground v.1.15,2013-01-20 17:05:00,
2013-01-20 12:07:00,55.3,35.9,30.09,West,273,3.0,6.0,48,0.00,,,0.00,Wunderground v.1.15,2013-01-20 17:07:00,
2013-01-20 12:08:00,55.4,35.5,30.09,WSW,253,2.0,6.0,47,0.00,,,0.00,Wunderground v.1.15,2013-01-20 17:08:00,
2013-01-20 12:09:00,55.5,36.1,30.09,SW,236,3.0,6.0,48,0.00,,,0.00,Wunderground v.1.15,2013-01-20 17:09:00,
2013-01-20 12:11:00,55.6,35.7,30.09,SSW,198,0.0,2.0,47,0.00,,,0.00,Wunderground v.1.15,2013-01-20 17:11:00,
2013-01-20 12:12:00,55.7,36.8,30.09,SW,225,2.0,2.0,49,0.00,,,0.00,Wunderground v.1.15,2013-01-20 17:12:00,
2013-01-20 12:13:00,55.8,36.4,30.09,WSW,243,2.0,2.0,48,0.00,,,0.00,Wunderground v.1.15,2013-01-20 17:13:00,
2013-01-20 12:14:00,55.9,35.9,30.09,SSW,203,3.0,7.0,47,0.00,,,0.00,Wunderground v.1.15,2013-01-20 17:14:00,
2013-01-20 12:16:00,56.0,35.5,30.09,West,281,4.0,7.0,46,0.00,,,0.00,Wunderground v.1.15,2013-01-20 17:16:00,
2013-01-20 12:17:00,56.1,35.6,30.08,WSW,247,6.0,7.0,46,0.00,,,0.00,Wunderground v.1.15,2013-01-20 17:17:00,
2013-01-20 12:18:00,56.1,35.6,30.08,SW,225,4.0,11.0,46,0.00,,,0.00,Wunderground v.1.15,2013-01-20 17:18:00,
2013-01-20 12:20:00,56.1,35.6,30.08,SW,218,4.0,4.0,46,0.00,,,0.00,Wunderground v.1.15,2013-01-20 17:20:00,
2013-01-20 12:21:00,56.0,35.5,30.08,SW,229,3.0,7.0,46,0.00,,,0.00,Wunderground v.1.15,2013-01-20 17:21:00,
2013-01-20 12:22:00,56.1,35.6,30.08,WSW,245,4.0,7.0,46,0.00,,,0.00,Wunderground v.1.15,2013-01-20 17:22:00,
2013-01-20 12:23:00,56.1,35.6,30.08,West,259,2.0,7.0,46,0.00,,,0.00,Wunderground v.1.15,2013-01-20 17:23:00,
2013-01-20 12:25:00,56.2,35.7,30.08,West,281,4.0,7.0,46,0.00,,,0.00,Wunderground v.1.15,2013-01-20 17:25:00,
2013-01-20 12:27:00,56.4,35.9,30.08,SW,224,5.0,7.0,46,0.00,,,0.00,Wunderground v.1.15,2013-01-20 17:27:00,
2013-01-20 12:28:00,56.6,36.6,30.08,NW,311,2.0,7.0,47,0.00,,,0.00,Wunderground v.1.15,2013-01-20 17:28:00,
2013-01-20 12:30:00,56.8,36.2,30.08,West,260,5.0,6.0,46,0.00,,,0.00,Wunderground v.1.15,2013-01-20 17:30:00,
2013-01-20 12:32:00,57.0,36.4,30.08,WSW,250,6.0,6.0,46,0.00,,,0.00,Wunderground v.1.15,2013-01-20 17:32:00,
2013-01-20 12:33:00,57.0,35.9,30.08,WSW,246,2.0,7.0,45,0.00,,,0.00,Wunderground v.1.15,2013-01-20 17:33:00,
2013-01-20 12:35:00,57.2,36.0,30.08,WSW,249,3.0,7.0,45,0.00,,,0.00,Wunderground v.1.15,2013-01-20 17:35:00,
2013-01-20 12:37:00,57.3,35.6,30.07,WSW,239,3.0,9.0,44,0.00,,,0.00,Wunderground v.1.15,2013-01-20 17:37:00,
2013-01-20 12:38:00,57.4,35.6,30.07,WSW,240,3.0,9.0,44,0.00,,,0.00,Wunderground v.1.15,2013-01-20 17:38:00,
2013-01-20 12:39:00,57.4,36.8,30.07,NNE,12,3.0,9.0,46,0.00,,,0.00,Wunderground v.1.15,2013-01-20 17:39:00,
2013-01-20 12:40:00,57.5,36.9,30.07,WNW,297,3.0,5.0,46,0.00,,,0.00,Wunderground v.1.15,2013-01-20 17:40:00,
2013-01-20 12:42:00,57.7,35.9,30.07,West,274,1.0,6.0,44,0.00,,,0.00,Wunderground v.1.15,2013-01-20 17:42:00,
2013-01-20 12:43:00,57.8,36.0,30.07,SW,229,3.0,6.0,44,0.00,,,0.00,Wunderground v.1.15,2013-01-20 17:43:00,
2013-01-20 12:44:00,57.8,36.0,30.07,SSW,198,1.0,6.0,44,0.00,,,0.00,Wunderground v.1.15,2013-01-20 17:44:00,
2013-01-20 12:45:00,57.9,36.7,30.07,NNW,330,4.0,6.0,45,0.00,,,0.00,Wunderground v.1.15,2013-01-20 17:45:00,
2013-01-20 12:47:00,57.9,36.1,30.07,NNE,13,3.0,6.0,44,0.00,,,0.00,Wunderground v.1.15,2013-01-20 17:47:00,
2013-01-20 12:49:00,58.0,36.2,30.07,West,281,1.0,6.0,44,0.00,,,0.00,Wunderground v.1.15,2013-01-20 17:49:00,
2013-01-20 12:50:00,58.1,36.3,30.07,SE,136,1.0,3.0,44,0.00,,,0.00,Wunderground v.1.15,2013-01-20 17:50:00,
2013-01-20 12:52:00,58.1,36.3,30.07,SW,235,6.0,6.0,44,0.00,,,0.00,Wunderground v.1.15,2013-01-20 17:52:00,
2013-01-20 12:54:00,58.3,35.3,30.07,SW,233,5.0,11.0,42,0.00,,,0.00,Wunderground v.1.15,2013-01-20 17:54:00,
2013-01-20 12:55:00,58.3,35.3,30.07,WSW,255,6.0,11.0,42,0.00,,,0.00,Wunderground v.1.15,2013-01-20 17:55:00,
2013-01-20 12:57:00,58.1,36.3,30.07,WSW,243,5.0,11.0,44,0.00,,,0.00,Wunderground v.1.15,2013-01-20 17:57:00,
2013-01-20 12:59:00,58.0,35.0,30.07,SW,222,7.0,7.0,42,0.00,,,0.00,Wunderground v.1.15,2013-01-20 17:59:00,
2013-01-20 13:00:00,58.0,35.0,30.07,SW,229,6.0,7.0,42,0.00,,,0.00,Wunderground v.1.15,2013-01-20 18:00:00,
2013-01-20 13:03:00,58.1,35.7,30.07,West,274,2.0,7.0,43,0.00,,,0.00,Wunderground v.1.15,2013-01-20 18:03:00,
2013-01-20 13:05:00,58.2,35.2,30.06,SW,229,6.0,9.0,42,0.00,,,0.00,Wunderground v.1.15,2013-01-20 18:05:00,
2013-01-20 13:06:00,58.2,35.8,30.06,SW,235,4.0,11.0,43,0.00,,,0.00,Wunderground v.1.15,2013-01-20 18:06:00,
2013-01-20 13:08:00,58.1,35.7,30.06,WSW,253,3.0,11.0,43,0.00,,,0.00,Wunderground v.1.15,2013-01-20 18:08:00,
2013-01-20 13:10:00,58.1,35.1,30.06,SW,224,2.0,4.0,42,0.00,,,0.00,Wunderground v.1.15,2013-01-20 18:10:00,
2013-01-20 13:11:00,58.1,35.7,30.06,West,261,3.0,4.0,43,0.00,,,0.00,Wunderground v.1.15,2013-01-20 18:11:00,
2013-01-20 13:13:00,58.2,35.2,30.06,West,272,2.0,7.0,42,0.00,,,0.00,Wunderground v.1.15,2013-01-20 18:13:00,
2013-01-20 13:15:00,58.4,36.0,30.06,WSW,257,5.0,7.0,43,0.00,,,0.00,Wunderground v.1.15,2013-01-20 18:15:00,
2013-01-20 13:16:00,58.5,35.5,30.06,West,263,5.0,7.0,42,0.00,,,0.00,Wunderground v.1.15,2013-01-20 18:16:00,
2013-01-20 13:18:00,58.5,34.9,30.06,NW,305,5.0,7.0,41,0.00,,,0.00,Wunderground v.1.15,2013-01-20 18:18:00,
2013-01-20 13:20:00,58.5,35.5,30.06,WNW,297,3.0,4.0,42,0.00,,,0.00,Wunderground v.1.15,2013-01-20 18:20:00,
2013-01-20 13:22:00,58.6,35.6,30.06,West,271,3.0,4.0,42,0.00,,,0.00,Wunderground v.1.15,2013-01-20 18:22:00,
2013-01-20 13:24:00,58.8,35.7,30.06,West,278,4.0,5.0,42,0.00,,,0.00,Wunderground v.1.15,2013-01-20 18:24:00,
2013-01-20 13:25:00,59.0,35.3,30.06,WSW,250,3.0,5.0,41,0.00,,,0.00,Wunderground v.1.15,2013-01-20 18:25:00,
2013-01-20 13:27:00,58.9,35.2,30.06,WSW,257,1.0,5.0,41,0.00,,,0.00,Wunderground v.1.15,2013-01-20 18:27:00,
2013-01-20 13:29:00,58.9,35.8,30.05,SW,219,0.0,5.0,42,0.00,,,0.00,Wunderground v.1.15,2013-01-20 18:29:00,
2013-01-20 13:30:00,58.8,35.7,30.05,West,269,2.0,3.0,42,0.00,,,0.00,Wunderground v.1.15,2013-01-20 18:30:00,
2013-01-20 13:31:00,58.8,35.7,30.05,West,260,3.0,3.0,42,0.00,,,0.00,Wunderground v.1.15,2013-01-20 18:31:00,
2013-01-20 13:32:00,58.8,35.7,30.05,WSW,250,3.0,3.0,42,0.00,,,0.00,Wunderground v.1.15,2013-01-20 18:32:00,
2013-01-20 13:34:00,58.9,35.8,30.05,West,272,2.0,4.0,42,0.00,,,0.00,Wunderground v.1.15,2013-01-20 18:34:00,
2013-01-20 13:35:00,59.0,35.9,30.05,WNW,297,2.0,4.0,42,0.00,,,0.00,Wunderground v.1.15,2013-01-20 18:35:00,
2013-01-20 13:36:00,59.0,36.5,30.05,WNW,290,2.0,4.0,43,0.00,,,0.00,Wunderground v.1.15,2013-01-20 18:36:00,
2013-01-20 13:37:00,59.1,35.4,30.05,West,263,1.0,4.0,41,0.00,,,0.00,Wunderground v.1.15,2013-01-20 18:37:00,
2013-01-20 13:39:00,59.0,35.9,30.05,WSW,238,2.0,4.0,42,0.00,,,0.00,Wunderground v.1.15,2013-01-20 18:39:00,
2013-01-20 13:40:00,59.1,35.4,30.05,WSW,245,0.0,1.0,41,0.00,,,0.00,Wunderground v.1.15,2013-01-20 18:40:00,
2013-01-20 13:41:00,59.0,35.3,30.05,West,278,1.0,1.0,41,0.00,,,0.00,Wunderground v.1.15,2013-01-20 18:41:00,
2013-01-20 13:42:00,59.0,35.3,30.05,West,264,2.0,4.0,41,0.00,,,0.00,Wunderground v.1.15,2013-01-20 18:42:00,
2013-01-20 13:45:00,59.4,35.7,30.05,West,278,5.0,5.0,41,0.00,,,0.00,Wunderground v.1.15,2013-01-20 18:45:00,
2013-01-20 13:46:00,59.4,35.7,30.05,WNW,297,2.0,5.0,41,0.00,,,0.00,Wunderground v.1.15,2013-01-20 18:46:00,
2013-01-20 13:47:00,59.6,34.6,30.05,WNW,300,2.0,5.0,39,0.00,,,0.00,Wunderground v.1.15,2013-01-20 18:47:00,
2013-01-20 13:50:00,59.6,34.6,30.05,WNW,294,3.0,5.0,39,0.00,,,0.00,Wunderground v.1.15,2013-01-20 18:50:00,
2013-01-20 13:51:00,59.6,34.6,30.05,NW,316,2.0,5.0,39,0.00,,,0.00,Wunderground v.1.15,2013-01-20 18:51:00,
2013-01-20 13:52:00,59.7,35.9,30.05,WNW,299,3.0,5.0,41,0.00,,,0.00,Wunderground v.1.15,2013-01-20 18:52:00,
2013-01-20 13:55:00,59.9,34.9,30.04,WNW,290,3.0,5.0,39,0.00,,,0.00,Wunderground v.1.15,2013-01-20 18:55:00,
2013-01-20 13:56:00,59.9,34.9,30.04,West,271,2.0,5.0,39,0.00,,,0.00,Wunderground v.1.15,2013-01-20 18:56:00,
2013-01-20 13:57:00,59.9,34.9,30.05,WNW,290,1.0,5.0,39,0.00,,,0.00,Wunderground v.1.15,2013-01-20 18:57:00,
2013-01-20 14:01:00,60.3,34.6,30.04,WSW,257,2.0,7.0,38,0.00,,,0.00,Wunderground v.1.15,2013-01-20 19:01:00,
2013-01-20 14:02:00,60.3,35.2,30.04,WNW,288,2.0,7.0,39,0.00,,,0.00,Wunderground v.1.15,2013-01-20 19:02:00,
2013-01-20 14:06:00,60.5,34.1,30.04,ENE,58,4.0,7.0,37,0.00,,,0.00,Wunderground v.1.15,2013-01-20 19:06:00,
2013-01-20 14:07:00,60.6,34.2,30.04,NW,317,2.0,7.0,37,0.00,,,0.00,Wunderground v.1.15,2013-01-20 19:07:00,
2013-01-20 14:11:00,60.6,33.5,30.04,WNW,293,4.0,6.0,36,0.00,,,0.00,Wunderground v.1.15,2013-01-20 19:11:00,
2013-01-20 14:12:00,60.6,33.5,30.04,WNW,302,4.0,9.0,36,0.00,,,0.00,Wunderground v.1.15,2013-01-20 19:12:00,
2013-01-20 14:15:00,60.5,33.4,30.04,WSW,248,4.0,-999.0,36,0.00,,,0.00,Wunderground v.1.15,2013-01-20 19:15:00,
2013-01-20 14:16:00,60.6,34.2,30.04,West,281,4.0,10.0,37,0.00,,,0.00,Wunderground v.1.15,2013-01-20 19:16:00,
2013-01-20 14:17:00,60.6,33.5,30.04,SW,229,7.0,10.0,36,0.00,,,0.00,Wunderground v.1.15,2013-01-20 19:17:00,
2013-01-20 14:20:00,60.6,34.2,30.04,SW,225,4.0,-999.0,37,0.00,,,0.00,Wunderground v.1.15,2013-01-20 19:20:00,
2013-01-20 14:21:00,60.6,34.2,30.04,SW,231,2.0,7.0,37,0.00,,,0.00,Wunderground v.1.15,2013-01-20 19:21:00,
2013-01-20 14:23:00,60.6,34.2,30.04,WSW,257,2.0,10.0,37,0.00,,,0.00,Wunderground v.1.15,2013-01-20 19:23:00,
2013-01-20 14:25:00,60.6,33.5,30.04,SW,225,5.0,-999.0,36,0.00,,,0.00,Wunderground v.1.15,2013-01-20 19:25:00,
2013-01-20 14:26:00,60.6,33.5,30.04,WSW,245,7.0,11.0,36,0.00,,,0.00,Wunderground v.1.15,2013-01-20 19:26:00,
2013-01-20 14:28:00,60.6,34.2,30.04,West,278,2.0,11.0,37,0.00,,,0.00,Wunderground v.1.15,2013-01-20 19:28:00,
2013-01-20 14:30:00,60.8,34.3,30.04,West,270,3.0,-999.0,37,0.00,,,0.00,Wunderground v.1.15,2013-01-20 19:30:00,
2013-01-20 14:31:00,60.8,34.3,30.04,SW,235,4.0,6.0,37,0.00,,,0.00,Wunderground v.1.15,2013-01-20 19:31:00,
2013-01-20 14:32:00,60.8,34.3,30.04,West,259,2.0,6.0,37,0.00,,,0.00,Wunderground v.1.15,2013-01-20 19:32:00,
2013-01-20 14:33:00,60.9,34.4,30.04,West,278,6.0,9.0,37,0.00,,,0.00,Wunderground v.1.15,2013-01-20 19:33:00,
2013-01-20 14:35:00,60.9,33.7,30.04,WSW,248,4.0,-999.0,36,0.00,,,0.00,Wunderground v.1.15,2013-01-20 19:35:00,
2013-01-20 14:36:00,60.9,33.7,30.04,West,266,4.0,9.0,36,0.00,,,0.00,Wunderground v.1.15,2013-01-20 19:36:00,
2013-01-20 14:37:00,60.9,33.7,30.04,West,259,3.0,9.0,36,0.00,,,0.00,Wunderground v.1.15,2013-01-20 19:37:00,
2013-01-20 14:39:00,60.9,33.0,30.04,SW,218,4.0,9.0,35,0.00,,,0.00,Wunderground v.1.15,2013-01-20 19:39:00,
2013-01-20 14:40:00,60.9,33.7,30.04,WSW,248,4.0,-999.0,36,0.00,,,0.00,Wunderground v.1.15,2013-01-20 19:40:00,
2013-01-20 14:41:00,60.9,33.7,30.04,WSW,250,4.0,8.0,36,0.00,,,0.00,Wunderground v.1.15,2013-01-20 19:41:00,
2013-01-20 14:42:00,61.0,33.8,30.04,West,277,4.0,11.0,36,0.00,,,0.00,Wunderground v.1.15,2013-01-20 19:42:00,
2013-01-20 14:44:00,61.0,33.8,30.04,West,264,3.0,11.0,36,0.00,,,0.00,Wunderground v.1.15,2013-01-20 19:44:00,
2013-01-20 14:45:00,61.0,33.8,30.04,WSW,248,4.0,-999.0,36,0.00,,,0.00,Wunderground v.1.15,2013-01-20 19:45:00,
2013-01-20 14:46:00,61.0,33.8,30.04,SW,221,4.0,11.0,36,0.00,,,0.00,Wunderground v.1.15,2013-01-20 19:46:00,
2013-01-20 14:47:00,61.0,33.8,30.04,West,259,4.0,11.0,36,0.00,,,0.00,Wunderground v.1.15,2013-01-20 19:47:00,
2013-01-20 14:49:00,60.9,33.7,30.04,West,269,3.0,11.0,36,0.00,,,0.00,Wunderground v.1.15,2013-01-20 19:49:00,
2013-01-20 14:51:00,60.9,33.0,30.03,WSW,250,7.0,8.0,35,0.00,,,0.00,Wunderground v.1.15,2013-01-20 19:51:00,
2013-01-20 14:55:00,60.7,33.6,30.03,WNW,293,4.0,-999.0,36,0.00,,,0.00,Wunderground v.1.15,2013-01-20 19:55:00,
2013-01-20 15:00:00,60.8,33.7,30.03,West,270,3.0,-999.0,36,0.00,,,0.00,Wunderground v.1.15,2013-01-20 20:00:00,
2013-01-20 15:05:00,60.8,33.7,30.03,WNW,293,3.0,-999.0,36,0.00,,,0.00,Wunderground v.1.15,2013-01-20 20:05:00,
2013-01-20 15:10:00,60.7,33.6,30.03,WSW,248,4.0,-999.0,36,0.00,,,0.00,Wunderground v.1.15,2013-01-20 20:10:00,
2013-01-20 15:15:00,60.7,33.6,30.03,WSW,248,4.0,-999.0,36,0.00,,,0.00,Wunderground v.1.15,2013-01-20 20:15:00,
2013-01-20 15:20:00,60.8,34.3,30.03,West,270,3.0,-999.0,37,0.00,,,0.00,Wunderground v.1.15,2013-01-20 20:20:00,
2013-01-20 15:25:00,60.9,33.0,30.03,WSW,248,3.0,-999.0,35,0.00,,,0.00,Wunderground v.1.15,2013-01-20 20:25:00,
2013-01-20 15:30:00,60.9,33.0,30.03,West,270,3.0,-999.0,35,0.00,,,0.00,Wunderground v.1.15,2013-01-20 20:30:00,
2013-01-20 15:35:00,61.0,33.8,30.03,WSW,248,3.0,-999.0,36,0.00,,,0.00,Wunderground v.1.15,2013-01-20 20:35:00,
2013-01-20 15:40:00,61.0,33.1,30.03,SW,225,4.0,-999.0,35,0.00,,,0.00,Wunderground v.1.15,2013-01-20 20:40:00,
2013-01-20 15:45:00,61.3,33.4,30.02,SW,225,4.0,-999.0,35,0.00,,,0.00,Wunderground v.1.15,2013-01-20 20:45:00,
2013-01-20 15:50:00,61.3,33.4,30.02,SW,225,5.0,-999.0,35,0.00,,,0.00,Wunderground v.1.15,2013-01-20 20:50:00,
2013-01-20 15:55:00,61.4,33.5,30.02,SW,225,2.0,-999.0,35,0.00,,,0.00,Wunderground v.1.15,2013-01-20 20:55:00,
2013-01-20 16:00:00,61.6,32.9,30.03,SW,225,4.0,-999.0,34,0.00,,,0.00,Wunderground v.1.15,2013-01-20 21:00:00,
2013-01-20 16:05:00,61.6,32.9,30.03,SW,225,2.0,-999.0,34,0.00,,,0.00,Wunderground v.1.15,2013-01-20 21:05:00,
2013-01-20 16:10:00,61.8,33.1,30.02,NW,315,2.0,-999.0,34,0.00,,,0.00,Wunderground v.1.15,2013-01-20 21:10:00,
2013-01-20 16:15:00,62.0,33.3,30.03,West,270,3.0,-999.0,34,0.00,,,0.00,Wunderground v.1.15,2013-01-20 21:15:00,
2013-01-20 16:20:00,61.9,32.5,30.03,WNW,293,2.0,-999.0,33,0.00,,,0.00,Wunderground v.1.15,2013-01-20 21:20:00,
2013-01-20 16:25:00,61.4,32.8,30.02,WNW,293,2.0,-999.0,34,0.00,,,0.00,Wunderground v.1.15,2013-01-20 21:25:00,
2013-01-20 16:30:00,61.3,33.4,30.02,West,270,2.0,-999.0,35,0.00,,,0.00,Wunderground v.1.15,2013-01-20 21:30:00,
2013-01-20 16:35:00,61.2,33.3,30.03,SW,225,2.0,-999.0,35,0.00,,,0.00,Wunderground v.1.15,2013-01-20 21:35:00,
2013-01-20 16:40:00,61.0,32.4,30.03,West,270,2.0,-999.0,34,0.00,,,0.00,Wunderground v.1.15,2013-01-20 21:40:00,
2013-01-20 16:45:00,61.0,32.4,30.03,West,270,2.0,-999.0,34,0.00,,,0.00,Wunderground v.1.15,2013-01-20 21:45:00,
2013-01-20 16:50:00,61.2,33.3,30.03,WSW,248,2.0,-999.0,35,0.00,,,0.00,Wunderground v.1.15,2013-01-20 21:50:00,
2013-01-20 16:55:00,61.0,32.4,30.03,SW,225,1.0,-999.0,34,0.00,,,0.00,Wunderground v.1.15,2013-01-20 21:55:00,
2013-01-20 17:00:00,60.6,32.8,30.04,WSW,248,2.0,-999.0,35,0.00,,,0.00,Wunderground v.1.15,2013-01-20 22:00:00,
2013-01-20 17:05:00,60.3,32.5,30.04,West,270,1.0,-999.0,35,0.00,,,0.00,Wunderground v.1.15,2013-01-20 22:05:00,
2013-01-20 17:10:00,60.2,32.4,30.04,WSW,248,1.0,-999.0,35,0.00,,,0.00,Wunderground v.1.15,2013-01-20 22:10:00,
2013-01-20 17:19:00,59.1,32.1,30.05,WNW,294,0.0,1.0,36,0.00,,,0.00,Wunderground v.1.15,2013-01-20 22:19:00,
2013-01-20 17:20:00,59.1,32.1,30.05,WNW,294,0.0,1.0,36,0.00,,,0.00,Wunderground v.1.15,2013-01-20 22:20:00,
2013-01-20 17:24:00,58.5,30.9,30.05,NNW,338,0.0,5.0,35,0.00,,,0.00,Wunderground v.1.15,2013-01-20 22:24:00,
2013-01-20 17:25:00,58.5,31.6,30.05,NNW,339,0.0,5.0,36,0.00,,,0.00,Wunderground v.1.15,2013-01-20 22:25:00,
2013-01-20 17:29:00,58.0,31.8,30.05,NNE,26,0.0,3.0,37,0.00,,,0.00,Wunderground v.1.15,2013-01-20 22:29:00,
2013-01-20 17:30:00,58.0,31.8,30.05,NNE,26,0.0,3.0,37,0.00,,,0.00,Wunderground v.1.15,2013-01-20 22:30:00,
2013-01-20 17:31:00,57.8,31.0,30.05,NNE,26,0.0,3.0,36,0.00,,,0.00,Wunderground v.1.15,2013-01-20 22:31:00,
2013-01-20 17:35:00,57.3,31.2,30.06,NNW,337,1.0,3.0,37,0.00,,,0.00,Wunderground v.1.15,2013-01-20 22:35:00,
2013-01-20 17:36:00,57.2,31.1,30.06,WNW,303,1.0,3.0,37,0.00,,,0.00,Wunderground v.1.15,2013-01-20 22:36:00,
2013-01-20 17:40:00,56.7,31.4,30.06,NW,309,0.0,1.0,38,0.00,,,0.00,Wunderground v.1.15,2013-01-20 22:40:00,
2013-01-20 17:41:00,56.6,31.3,30.06,NW,309,0.0,1.0,38,0.00,,,0.00,Wunderground v.1.15,2013-01-20 22:41:00,
2013-01-20 17:45:00,56.0,30.7,30.06,WNW,297,0.0,2.0,38,0.00,,,0.00,Wunderground v.1.15,2013-01-20 22:45:00,
2013-01-20 17:46:00,55.9,31.3,30.06,WNW,296,0.0,2.0,39,0.00,,,0.00,Wunderground v.1.15,2013-01-20 22:46:00,
2013-01-20 17:50:00,55.3,30.7,30.06,WNW,296,0.0,0.0,39,0.00,,,0.00,Wunderground v.1.15,2013-01-20 22:50:00,
2013-01-20 17:51:00,55.2,30.7,30.06,WNW,296,0.0,1.0,39,0.00,,,0.00,Wunderground v.1.15,2013-01-20 22:51:00,
2013-01-20 17:55:00,54.8,30.3,30.07,WNW,295,1.0,5.0,39,0.00,,,0.00,Wunderground v.1.15,2013-01-20 22:55:00,
2013-01-20 17:56:00,54.8,30.3,30.07,WNW,297,0.0,5.0,39,0.00,,,0.00,Wunderground v.1.15,2013-01-20 22:56:00,
2013-01-20 17:57:00,54.7,30.2,30.07,WNW,287,0.0,5.0,39,0.00,,,0.00,Wunderground v.1.15,2013-01-20 22:57:00,
2013-01-20 18:00:00,54.6,30.7,30.07,North,1,0.0,1.0,40,0.00,,,0.00,Wunderground v.1.15,2013-01-20 23:00:00,
2013-01-20 18:01:00,54.6,30.7,30.07,North,1,0.0,1.0,40,0.00,,,0.00,Wunderground v.1.15,2013-01-20 23:01:00,
2013-01-20 18:02:00,54.4,30.6,30.07,WNW,285,1.0,1.0,40,0.00,,,0.00,Wunderground v.1.15,2013-01-20 23:02:00,
2013-01-20 18:05:00,54.3,29.8,30.07,NNW,338,2.0,3.0,39,0.00,,,0.00,Wunderground v.1.15,2013-01-20 23:05:00,
2013-01-20 18:06:00,54.3,30.5,30.07,NNW,338,0.0,3.0,40,0.00,,,0.00,Wunderground v.1.15,2013-01-20 23:06:00,
2013-01-20 18:07:00,54.3,30.5,30.07,East,93,1.0,3.0,40,0.00,,,0.00,Wunderground v.1.15,2013-01-20 23:07:00,
2013-01-20 18:10:00,54.0,30.2,30.07,WNW,293,3.0,3.0,40,0.00,,,0.00,Wunderground v.1.15,2013-01-20 23:10:00,
2013-01-20 18:11:00,54.0,30.2,30.07,NW,308,2.0,3.0,40,0.00,,,0.00,Wunderground v.1.15,2013-01-20 23:11:00,
2013-01-20 18:12:00,53.9,30.1,30.07,WNW,300,3.0,4.0,40,0.00,,,0.00,Wunderground v.1.15,2013-01-20 23:12:00,
2013-01-20 18:15:00,53.8,30.0,30.08,WNW,297,1.0,4.0,40,0.00,,,0.00,Wunderground v.1.15,2013-01-20 23:15:00,
2013-01-20 18:16:00,53.8,30.0,30.08,WSW,240,1.0,4.0,40,0.00,,,0.00,Wunderground v.1.15,2013-01-20 23:16:00,
2013-01-20 18:17:00,53.7,29.9,30.08,East,84,2.0,4.0,40,0.00,,,0.00,Wunderground v.1.15,2013-01-20 23:17:00,
2013-01-20 18:20:00,53.4,29.7,30.08,NNE,17,0.0,1.0,40,0.00,,,0.00,Wunderground v.1.15,2013-01-20 23:20:00,
2013-01-20 18:22:00,53.3,29.6,30.08,North,351,1.0,2.0,40,0.00,,,0.00,Wunderground v.1.15,2013-01-20 23:22:00,
2013-01-20 18:25:00,53.1,28.8,30.08,NW,322,1.0,4.0,39,0.00,,,0.00,Wunderground v.1.15,2013-01-20 23:25:00,
2013-01-20 18:27:00,53.1,28.8,30.08,NNW,328,1.0,4.0,39,0.00,,,0.00,Wunderground v.1.15,2013-01-20 23:27:00,
2013-01-20 18:28:00,53.1,28.8,30.08,NNW,327,0.0,4.0,39,0.00,,,0.00,Wunderground v.1.15,2013-01-20 23:28:00,
2013-01-20 18:31:00,52.9,28.6,30.08,West,281,0.0,2.0,39,0.00,,,0.00,Wunderground v.1.15,2013-01-20 23:31:00,
2013-01-20 18:32:00,52.8,29.1,30.08,West,281,0.0,2.0,40,0.00,,,0.00,Wunderground v.1.15,2013-01-20 23:32:00,
2013-01-20 18:33:00,52.8,29.1,30.08,West,281,0.0,2.0,40,0.00,,,0.00,Wunderground v.1.15,2013-01-20 23:33:00,
2013-01-20 18:36:00,52.6,28.9,30.08,NW,308,1.0,2.0,40,0.00,,,0.00,Wunderground v.1.15,2013-01-20 23:36:00,
2013-01-20 18:37:00,52.4,28.8,30.08,ESE,110,0.0,2.0,40,0.00,,,0.00,Wunderground v.1.15,2013-01-20 23:37:00,
2013-01-20 18:38:00,52.4,28.8,30.08,ESE,110,0.0,2.0,40,0.00,,,0.00,Wunderground v.1.15,2013-01-20 23:38:00,
2013-01-20 18:41:00,52.2,28.6,30.09,ESE,110,0.0,1.0,40,0.00,,,0.00,Wunderground v.1.15,2013-01-20 23:41:00,
2013-01-20 18:43:00,52.0,28.4,30.09,WNW,297,0.0,1.0,40,0.00,,,0.00,Wunderground v.1.15,2013-01-20 23:43:00,
2013-01-20 18:46:00,51.9,28.9,30.09,West,281,0.0,2.0,41,0.00,,,0.00,Wunderground v.1.15,2013-01-20 23:46:00,
2013-01-20 18:48:00,51.6,28.6,30.09,West,281,0.0,2.0,41,0.00,,,0.00,Wunderground v.1.15,2013-01-20 23:48:00,
2013-01-20 18:49:00,51.6,28.6,30.09,West,281,0.0,2.0,41,0.00,,,0.00,Wunderground v.1.15,2013-01-20 23:49:00,
2013-01-20 18:51:00,51.4,27.9,30.09,West,271,0.0,1.0,40,0.00,,,0.00,Wunderground v.1.15,2013-01-20 23:51:00,
2013-01-20 18:53:00,51.2,28.3,30.09,West,271,0.0,1.0,41,0.00,,,0.00,Wunderground v.1.15,2013-01-20 23:53:00,
2013-01-20 18:54:00,51.2,28.3,30.09,West,271,0.0,1.0,41,0.00,,,0.00,Wunderground v.1.15,2013-01-20 23:54:00,
2013-01-20 18:56:00,51.0,28.1,30.09,West,271,0.0,1.0,41,0.00,,,0.00,Wunderground v.1.15,2013-01-20 23:56:00,
2013-01-20 18:59:00,50.7,27.8,30.09,West,271,0.0,1.0,41,0.00,,,0.00,Wunderground v.1.15,2013-01-20 23:59:00,
2013-01-20 19:01:00,50.5,27.7,30.09,West,271,0.0,0.0,41,0.00,,,0.00,Wunderground v.1.15,2013-01-21 00:01:00,
2013-01-20 19:04:00,50.2,28.0,30.09,West,271,0.0,0.0,42,0.00,,,0.00,Wunderground v.1.15,2013-01-21 00:04:00,
2013-01-20 19:06:00,49.9,27.7,30.09,West,271,0.0,0.0,42,0.00,,,0.00,Wunderground v.1.15,2013-01-21 00:06:00,
2013-01-20 19:09:00,49.7,28.1,30.09,West,271,0.0,0.0,43,0.00,,,0.00,Wunderground v.1.15,2013-01-21 00:09:00,
2013-01-20 19:12:00,49.4,27.8,30.09,West,271,0.0,0.0,43,0.00,,,0.00,Wunderground v.1.15,2013-01-21 00:12:00,
2013-01-20 19:14:00,49.3,27.7,30.09,West,271,0.0,0.0,43,0.00,,,0.00,Wunderground v.1.15,2013-01-21 00:14:00,
2013-01-20 19:17:00,49.1,28.1,30.09,West,271,0.0,1.0,44,0.00,,,0.00,Wunderground v.1.15,2013-01-21 00:17:00,
2013-01-20 19:19:00,48.8,27.8,30.09,NNW,340,1.0,1.0,44,0.00,,,0.00,Wunderground v.1.15,2013-01-21 00:19:00,
2013-01-20 19:22:00,48.7,27.7,30.09,NNW,335,0.0,2.0,44,0.00,,,0.00,Wunderground v.1.15,2013-01-21 00:22:00,
2013-01-20 19:24:00,48.6,27.6,30.09,NNW,335,1.0,2.0,44,0.00,,,0.00,Wunderground v.1.15,2013-01-21 00:24:00,
2013-01-20 19:27:00,48.5,27.6,30.09,West,266,0.0,2.0,44,0.00,,,0.00,Wunderground v.1.15,2013-01-21 00:27:00,
2013-01-20 19:29:00,48.4,28.5,30.09,WSW,250,1.0,1.0,46,0.00,,,0.00,Wunderground v.1.15,2013-01-21 00:29:00,
2013-01-20 19:30:00,48.4,28.5,30.09,WSW,250,1.0,1.0,46,0.00,,,0.00,Wunderground v.1.15,2013-01-21 00:30:00,
2013-01-20 19:32:00,48.2,27.8,30.09,West,267,0.0,2.0,45,0.00,,,0.00,Wunderground v.1.15,2013-01-21 00:32:00,
2013-01-20 19:34:00,48.1,27.7,30.09,West,270,1.0,2.0,45,0.00,,,0.00,Wunderground v.1.15,2013-01-21 00:34:00,
2013-01-20 19:35:00,48.1,27.7,30.09,West,270,1.0,2.0,45,0.00,,,0.00,Wunderground v.1.15,2013-01-21 00:35:00,
2013-01-20 19:37:00,48.1,27.7,30.09,West,273,0.0,2.0,45,0.00,,,0.00,Wunderground v.1.15,2013-01-21 00:37:00,
2013-01-20 19:40:00,48.1,27.7,30.09,West,270,0.0,1.0,45,0.00,,,0.00,Wunderground v.1.15,2013-01-21 00:40:00,
2013-01-20 19:42:00,48.0,28.2,30.09,NNW,328,0.0,1.0,46,0.00,,,0.00,Wunderground v.1.15,2013-01-21 00:42:00,
2013-01-20 19:45:00,47.9,27.6,30.09,WNW,292,1.0,1.0,45,0.00,,,0.00,Wunderground v.1.15,2013-01-21 00:45:00,
2013-01-20 19:46:00,47.8,27.5,30.09,WNW,293,0.0,1.0,45,0.00,,,0.00,Wunderground v.1.15,2013-01-21 00:46:00,
2013-01-20 19:48:00,47.7,27.9,30.09,WNW,295,0.0,1.0,46,0.00,,,0.00,Wunderground v.1.15,2013-01-21 00:48:00,
2013-01-20 19:50:00,47.7,27.9,30.09,NNE,14,2.0,2.0,46,0.00,,,0.00,Wunderground v.1.15,2013-01-21 00:50:00,
2013-01-20 19:51:00,47.7,27.9,30.09,WSW,258,2.0,2.0,46,0.00,,,0.00,Wunderground v.1.15,2013-01-21 00:51:00,
2013-01-20 19:53:00,47.6,27.8,30.09,NW,310,2.0,3.0,46,0.00,,,0.00,Wunderground v.1.15,2013-01-21 00:53:00,
2013-01-20 19:55:00,47.7,27.9,30.09,North,354,1.0,4.0,46,0.00,,,0.00,Wunderground v.1.15,2013-01-21 00:55:00,
2013-01-20 19:56:00,47.7,27.9,30.09,WNW,289,1.0,4.0,46,0.00,,,0.00,Wunderground v.1.15,2013-01-21 00:56:00,
2013-01-20 19:58:00,47.9,28.1,30.09,ESE,106,2.0,4.0,46,0.00,,,0.00,Wunderground v.1.15,2013-01-21 00:58:00,
2013-01-20 20:00:00,47.9,28.1,30.09,WNW,300,5.0,5.0,46,0.00,,,0.00,Wunderground v.1.15,2013-01-21 01:00:00,
2013-01-20 20:02:00,48.2,27.8,30.09,WNW,300,4.0,5.0,45,0.00,,,0.00,Wunderground v.1.15,2013-01-21 01:02:00,
2013-01-20 20:04:00,48.4,28.5,30.10,West,263,1.0,5.0,46,0.00,,,0.00,Wunderground v.1.15,2013-01-21 01:04:00,
2013-01-20 20:05:00,48.4,28.5,30.10,WNW,293,2.0,5.0,46,0.00,,,0.00,Wunderground v.1.15,2013-01-21 01:05:00,
2013-01-20 20:07:00,48.4,28.5,30.10,SSW,213,1.0,5.0,46,0.00,,,0.00,Wunderground v.1.15,2013-01-21 01:07:00,
2013-01-20 20:09:00,48.3,28.5,30.10,WNW,284,2.0,5.0,46,0.00,,,0.00,Wunderground v.1.15,2013-01-21 01:09:00,
2013-01-20 20:10:00,48.2,28.9,30.10,NW,311,2.0,2.0,47,0.00,,,0.00,Wunderground v.1.15,2013-01-21 01:10:00,
2013-01-20 20:11:00,48.2,28.4,30.10,West,262,2.0,3.0,46,0.00,,,0.00,Wunderground v.1.15,2013-01-21 01:11:00,
2013-01-20 20:12:00,48.1,28.3,30.10,WNW,285,0.0,3.0,46,0.00,,,0.00,Wunderground v.1.15,2013-01-21 01:12:00,
2013-01-20 20:14:00,48.0,28.2,30.10,SW,232,1.0,3.0,46,0.00,,,0.00,Wunderground v.1.15,2013-01-21 01:14:00,
2013-01-20 20:15:00,47.9,28.1,30.10,SW,234,1.0,3.0,46,0.00,,,0.00,Wunderground v.1.15,2013-01-21 01:15:00,
2013-01-20 20:16:00,47.9,28.1,30.10,WSW,256,0.0,3.0,46,0.00,,,0.00,Wunderground v.1.15,2013-01-21 01:16:00,
2013-01-20 20:17:00,47.8,28.5,30.10,WSW,256,0.0,3.0,47,0.00,,,0.00,Wunderground v.1.15,2013-01-21 01:17:00,
2013-01-20 20:19:00,47.7,28.4,30.10,NW,304,0.0,3.0,47,0.00,,,0.00,Wunderground v.1.15,2013-01-21 01:19:00,
2013-01-20 20:20:00,47.6,28.3,30.10,NW,304,0.0,1.0,47,0.00,,,0.00,Wunderground v.1.15,2013-01-21 01:20:00,
2013-01-20 20:21:00,47.6,28.3,30.10,NNW,342,1.0,2.0,47,0.00,,,0.00,Wunderground v.1.15,2013-01-21 01:21:00,
2013-01-20 20:23:00,47.5,28.3,30.10,NNW,328,0.0,2.0,47,0.00,,,0.00,Wunderground v.1.15,2013-01-21 01:23:00,
2013-01-20 20:24:00,47.5,28.3,30.10,NNW,328,0.0,2.0,47,0.00,,,0.00,Wunderground v.1.15,2013-01-21 01:24:00,
2013-01-20 20:25:00,47.4,28.2,30.10,West,276,0.0,2.0,47,0.00,,,0.00,Wunderground v.1.15,2013-01-21 01:25:00,
2013-01-20 20:26:00,47.3,28.1,30.10,West,270,1.0,2.0,47,0.00,,,0.00,Wunderground v.1.15,2013-01-21 01:26:00,
2013-01-20 20:28:00,47.3,28.1,30.10,West,269,1.0,2.0,47,0.00,,,0.00,Wunderground v.1.15,2013-01-21 01:28:00,
2013-01-20 20:29:00,47.4,28.2,30.10,NW,323,0.0,4.0,47,0.00,,,0.00,Wunderground v.1.15,2013-01-21 01:29:00,
2013-01-20 20:31:00,47.4,28.2,30.10,WNW,303,0.0,4.0,47,0.00,,,0.00,Wunderground v.1.15,2013-01-21 01:31:00,
2013-01-20 20:32:00,47.4,28.7,30.10,NW,304,0.0,4.0,48,0.00,,,0.00,Wunderground v.1.15,2013-01-21 01:32:00,
2013-01-20 20:33:00,47.3,28.6,30.10,WNW,303,0.0,4.0,48,0.00,,,0.00,Wunderground v.1.15,2013-01-21 01:33:00,
2013-01-20 20:34:00,47.2,28.5,30.10,NNW,329,2.0,4.0,48,0.00,,,0.00,Wunderground v.1.15,2013-01-21 01:34:00,
2013-01-20 20:36:00,47.2,28.5,30.10,West,266,2.0,4.0,48,0.00,,,0.00,Wunderground v.1.15,2013-01-21 01:36:00,
2013-01-20 20:37:00,47.2,28.5,30.10,West,273,0.0,4.0,48,0.00,,,0.00,Wunderground v.1.15,2013-01-21 01:37:00,
2013-01-20 20:39:00,47.2,28.5,30.10,West,273,0.0,4.0,48,0.00,,,0.00,Wunderground v.1.15,2013-01-21 01:39:00,
2013-01-20 20:41:00,47.1,28.4,30.10,West,273,0.0,1.0,48,0.00,,,0.00,Wunderground v.1.15,2013-01-21 01:41:00,
2013-01-20 20:42:00,47.0,28.3,30.10,West,274,0.0,1.0,48,0.00,,,0.00,Wunderground v.1.15,2013-01-21 01:42:00,
2013-01-20 20:44:00,46.9,28.7,30.10,NNW,345,1.0,1.0,49,0.00,,,0.00,Wunderground v.1.15,2013-01-21 01:44:00,
2013-01-20 20:46:00,46.7,28.0,30.11,NNW,345,0.0,1.0,48,0.00,,,0.00,Wunderground v.1.15,2013-01-21 01:46:00,
2013-01-20 20:47:00,46.7,28.5,30.10,NNW,345,0.0,1.0,49,0.00,,,0.00,Wunderground v.1.15,2013-01-21 01:47:00,
2013-01-20 20:49:00,46.6,28.4,30.10,WSW,245,0.0,1.0,49,0.00,,,0.00,Wunderground v.1.15,2013-01-21 01:49:00,
2013-01-20 20:50:00,46.6,28.4,30.10,NW,310,2.0,3.0,49,0.00,,,0.00,Wunderground v.1.15,2013-01-21 01:50:00,
2013-01-20 20:51:00,46.6,28.4,30.10,SW,236,0.0,3.0,49,0.00,,,0.00,Wunderground v.1.15,2013-01-21 01:51:00,
2013-01-20 20:53:00,46.5,28.3,30.10,SW,229,1.0,3.0,49,0.00,,,0.00,Wunderground v.1.15,2013-01-21 01:53:00,
2013-01-20 20:54:00,46.5,28.3,30.10,West,281,0.0,3.0,49,0.00,,,0.00,Wunderground v.1.15,2013-01-21 01:54:00,
2013-01-20 20:55:00,46.5,28.3,30.10,WSW,248,0.0,3.0,49,0.00,,,0.00,Wunderground v.1.15,2013-01-21 01:55:00,
2013-01-20 20:56:00,46.5,28.3,30.10,WSW,248,1.0,3.0,49,0.00,,,0.00,Wunderground v.1.15,2013-01-21 01:56:00,
2013-01-20 20:58:00,46.4,28.3,30.11,WSW,238,1.0,3.0,49,0.00,,,0.00,Wunderground v.1.15,2013-01-21 01:58:00,
2013-01-20 20:59:00,46.3,28.7,30.11,SW,236,1.0,3.0,50,0.00,,,0.00,Wunderground v.1.15,2013-01-21 01:59:00,
2013-01-20 21:00:00,46.3,28.2,30.11,SW,236,1.0,1.0,49,0.00,,,0.00,Wunderground v.1.15,2013-01-21 02:00:00,
2013-01-20 21:01:00,46.3,28.2,30.11,SW,235,1.0,1.0,49,0.00,,,0.00,Wunderground v.1.15,2013-01-21 02:01:00,
2013-01-20 21:03:00,46.4,28.3,30.11,SW,232,0.0,2.0,49,0.00,,,0.00,Wunderground v.1.15,2013-01-21 02:03:00,
2013-01-20 21:04:00,46.5,28.3,30.11,West,274,0.0,2.0,49,0.00,,,0.00,Wunderground v.1.15,2013-01-21 02:04:00,
2013-01-20 21:05:00,46.5,28.3,30.11,WSW,241,0.0,2.0,49,0.00,,,0.00,Wunderground v.1.15,2013-01-21 02:05:00,
2013-01-20 21:06:00,46.5,28.8,30.11,WSW,241,0.0,2.0,50,0.00,,,0.00,Wunderground v.1.15,2013-01-21 02:06:00,
2013-01-20 21:09:00,46.3,28.2,30.11,WSW,241,0.0,2.0,49,0.00,,,0.00,Wunderground v.1.15,2013-01-21 02:09:00,
2013-01-20 21:10:00,46.2,28.6,30.11,WSW,241,0.0,1.0,50,0.00,,,0.00,Wunderground v.1.15,2013-01-21 02:10:00,
2013-01-20 21:11:00,46.1,28.5,30.11,WSW,242,0.0,1.0,50,0.00,,,0.00,Wunderground v.1.15,2013-01-21 02:11:00,
2013-01-20 21:14:00,45.9,28.3,30.11,WSW,242,1.0,1.0,50,0.00,,,0.00,Wunderground v.1.15,2013-01-21 02:14:00,
2013-01-20 21:15:00,45.8,28.2,30.11,WSW,243,0.0,1.0,50,0.00,,,0.00,Wunderground v.1.15,2013-01-21 02:15:00,
2013-01-20 21:16:00,45.7,28.6,30.11,WSW,243,0.0,1.0,51,0.00,,,0.00,Wunderground v.1.15,2013-01-21 02:16:00,
2013-01-20 21:19:00,45.5,28.4,30.11,WSW,243,0.0,1.0,51,0.00,,,0.00,Wunderground v.1.15,2013-01-21 02:19:00,
2013-01-20 21:20:00,45.4,28.3,30.11,WSW,243,0.0,0.0,51,0.00,,,0.00,Wunderground v.1.15,2013-01-21 02:20:00,
2013-01-20 21:22:00,45.2,28.1,30.11,WSW,250,1.0,1.0,51,0.00,,,0.00,Wunderground v.1.15,2013-01-21 02:22:00,
2013-01-20 21:24:00,45.0,28.4,30.11,West,259,0.0,1.0,52,0.00,,,0.00,Wunderground v.1.15,2013-01-21 02:24:00,
2013-01-20 21:25:00,44.9,28.3,30.11,West,269,0.0,1.0,52,0.00,,,0.00,Wunderground v.1.15,2013-01-21 02:25:00,
2013-01-20 21:27:00,44.9,28.3,30.11,West,275,1.0,1.0,52,0.00,,,0.00,Wunderground v.1.15,2013-01-21 02:27:00,
2013-01-20 21:29:00,45.0,28.4,30.11,NW,305,0.0,3.0,52,0.00,,,0.00,Wunderground v.1.15,2013-01-21 02:29:00,
2013-01-20 21:30:00,45.0,28.4,30.11,NW,305,0.0,0.0,52,0.00,,,0.00,Wunderground v.1.15,2013-01-21 02:30:00,
2013-01-20 21:31:00,45.0,28.4,30.11,NW,305,0.0,0.0,52,0.00,,,0.00,Wunderground v.1.15,2013-01-21 02:31:00,
2013-01-20 21:33:00,45.0,28.9,30.11,WNW,293,0.0,1.0,53,0.00,,,0.00,Wunderground v.1.15,2013-01-21 02:33:00,
2013-01-20 21:34:00,45.0,28.4,30.11,WNW,293,0.0,1.0,52,0.00,,,0.00,Wunderground v.1.15,2013-01-21 02:34:00,
2013-01-20 21:35:00,45.0,28.4,30.11,WNW,293,0.0,1.0,52,0.00,,,0.00,Wunderground v.1.15,2013-01-21 02:35:00,
2013-01-20 21:36:00,45.0,28.4,30.11,WNW,293,1.0,1.0,52,0.00,,,0.00,Wunderground v.1.15,2013-01-21 02:36:00,
2013-01-20 21:38:00,45.0,28.4,30.11,WNW,293,0.0,1.0,52,0.00,,,0.00,Wunderground v.1.15,2013-01-21 02:38:00,
2013-01-20 21:39:00,45.1,28.5,30.11,WNW,293,0.0,1.0,52,0.00,,,0.00,Wunderground v.1.15,2013-01-21 02:39:00,
2013-01-20 21:40:00,45.1,29.0,30.11,WNW,293,0.0,0.0,53,0.00,,,0.00,Wunderground v.1.15,2013-01-21 02:40:00,
2013-01-20 21:42:00,45.1,28.5,30.11,WNW,293,0.0,0.0,52,0.00,,,0.00,Wunderground v.1.15,2013-01-21 02:42:00,
2013-01-20 21:43:00,45.0,28.4,30.11,WNW,293,0.0,0.0,52,0.00,,,0.00,Wunderground v.1.15,2013-01-21 02:43:00,
2013-01-20 21:44:00,44.9,28.3,30.11,WNW,293,0.0,0.0,52,0.00,,,0.00,Wunderground v.1.15,2013-01-21 02:44:00,
2013-01-20 21:45:00,44.9,28.8,30.11,West,275,1.0,1.0,53,0.00,,,0.00,Wunderground v.1.15,2013-01-21 02:45:00,
2013-01-20 21:47:00,44.9,28.8,30.11,SW,229,0.0,1.0,53,0.00,,,0.00,Wunderground v.1.15,2013-01-21 02:47:00,
2013-01-20 21:48:00,44.9,28.8,30.11,SW,229,0.0,1.0,53,0.00,,,0.00,Wunderground v.1.15,2013-01-21 02:48:00,
2013-01-20 21:49:00,44.9,28.8,30.11,SW,229,0.0,0.0,53,0.00,,,0.00,Wunderground v.1.15,2013-01-21 02:49:00,
2013-01-20 21:50:00,45.0,28.9,30.11,SW,229,0.0,1.0,53,0.00,,,0.00,Wunderground v.1.15,2013-01-21 02:50:00,
2013-01-20 21:52:00,45.0,28.9,30.11,SW,229,0.0,1.0,53,0.00,,,0.00,Wunderground v.1.15,2013-01-21 02:52:00,
2013-01-20 21:53:00,45.0,28.9,30.11,SW,229,0.0,1.0,53,0.00,,,0.00,Wunderground v.1.15,2013-01-21 02:53:00,
2013-01-20 21:54:00,45.0,28.9,30.11,SW,229,0.0,1.0,53,0.00,,,0.00,Wunderground v.1.15,2013-01-21 02:54:00,
2013-01-20 21:55:00,45.0,28.9,30.11,SW,229,0.0,1.0,53,0.00,,,0.00,Wunderground v.1.15,2013-01-21 02:55:00,
2013-01-20 21:58:00,44.9,28.8,30.11,SW,229,0.0,1.0,53,0.00,,,0.00,Wunderground v.1.15,2013-01-21 02:58:00,
2013-01-20 22:00:00,44.8,28.7,30.10,SW,229,0.0,0.0,53,0.00,,,0.00,Wunderground v.1.15,2013-01-21 03:00:00,
2013-01-20 22:03:00,44.6,29.0,30.10,SW,229,0.0,0.0,54,0.00,,,0.00,Wunderground v.1.15,2013-01-21 03:03:00,
2013-01-20 22:04:00,44.6,29.0,30.10,SW,229,0.0,0.0,54,0.00,,,0.00,Wunderground v.1.15,2013-01-21 03:04:00,
2013-01-20 22:05:00,44.5,28.9,30.10,SW,229,0.0,0.0,54,0.00,,,0.00,Wunderground v.1.15,2013-01-21 03:05:00,
2013-01-20 22:09:00,44.1,28.5,30.11,SW,229,0.0,0.0,54,0.00,,,0.00,Wunderground v.1.15,2013-01-21 03:09:00,
2013-01-20 22:10:00,44.0,28.4,30.11,SW,229,0.0,0.0,54,0.00,,,0.00,Wunderground v.1.15,2013-01-21 03:10:00,
2013-01-20 22:14:00,43.6,28.5,30.11,SW,229,0.0,0.0,55,0.00,,,0.00,Wunderground v.1.15,2013-01-21 03:14:00,
2013-01-20 22:15:00,43.4,28.3,30.11,SW,229,0.0,0.0,55,0.00,,,0.00,Wunderground v.1.15,2013-01-21 03:15:00,
2013-01-20 22:19:00,43.1,28.5,30.10,SW,229,0.0,0.0,56,0.00,,,0.00,Wunderground v.1.15,2013-01-21 03:19:00,
2013-01-20 22:20:00,43.0,28.4,30.10,SW,229,0.0,0.0,56,0.00,,,0.00,Wunderground v.1.15,2013-01-21 03:20:00,
2013-01-20 22:24:00,42.8,28.6,30.10,SW,229,0.0,0.0,57,0.00,,,0.00,Wunderground v.1.15,2013-01-21 03:24:00,
2013-01-20 22:25:00,42.8,28.6,30.10,SW,229,0.0,0.0,57,0.00,,,0.00,Wunderground v.1.15,2013-01-21 03:25:00,
2013-01-20 22:29:00,42.9,28.7,30.10,SW,229,0.0,0.0,57,0.00,,,0.00,Wunderground v.1.15,2013-01-21 03:29:00,
2013-01-20 22:30:00,42.8,28.6,30.10,SW,229,0.0,0.0,57,0.00,,,0.00,Wunderground v.1.15,2013-01-21 03:30:00,
2013-01-20 22:34:00,42.6,28.8,30.10,SW,229,0.0,0.0,58,0.00,,,0.00,Wunderground v.1.15,2013-01-21 03:34:00,
2013-01-20 22:35:00,42.6,28.8,30.10,SW,229,0.0,0.0,58,0.00,,,0.00,Wunderground v.1.15,2013-01-21 03:35:00,
2013-01-20 22:39:00,42.6,28.8,30.10,SW,229,0.0,0.0,58,0.00,,,0.00,Wunderground v.1.15,2013-01-21 03:39:00,
2013-01-20 22:40:00,42.6,28.8,30.10,SW,229,0.0,0.0,58,0.00,,,0.00,Wunderground v.1.15,2013-01-21 03:40:00,
2013-01-20 22:44:00,42.5,28.8,30.10,SW,229,0.0,0.0,58,0.00,,,0.00,Wunderground v.1.15,2013-01-21 03:44:00,
2013-01-20 22:45:00,42.4,28.7,30.10,SW,229,0.0,0.0,58,0.00,,,0.00,Wunderground v.1.15,2013-01-21 03:45:00,
2013-01-20 22:49:00,42.2,28.9,30.10,SW,229,0.0,0.0,59,0.00,,,0.00,Wunderground v.1.15,2013-01-21 03:49:00,
2013-01-20 22:50:00,42.1,28.8,30.10,SW,229,0.0,0.0,59,0.00,,,0.00,Wunderground v.1.15,2013-01-21 03:50:00,
2013-01-20 22:51:00,42.1,28.8,30.10,SW,229,0.0,0.0,59,0.00,,,0.00,Wunderground v.1.15,2013-01-21 03:51:00,
2013-01-20 22:54:00,41.8,28.5,30.11,SW,229,0.0,0.0,59,0.00,,,0.00,Wunderground v.1.15,2013-01-21 03:54:00,
2013-01-20 22:56:00,41.7,28.4,30.11,SW,229,0.0,0.0,59,0.00,,,0.00,Wunderground v.1.15,2013-01-21 03:56:00,
2013-01-20 22:59:00,41.2,28.4,30.10,SW,229,0.0,0.0,60,0.00,,,0.00,Wunderground v.1.15,2013-01-21 03:59:00,
2013-01-20 23:01:00,41.1,28.3,30.11,SW,229,0.0,0.0,60,0.00,,,0.00,Wunderground v.1.15,2013-01-21 04:01:00,
2013-01-20 23:02:00,41.0,28.6,30.10,SW,229,0.0,0.0,61,0.00,,,0.00,Wunderground v.1.15,2013-01-21 04:02:00,
2013-01-20 23:04:00,40.8,28.8,30.10,SW,229,0.0,0.0,62,0.00,,,0.00,Wunderground v.1.15,2013-01-21 04:04:00,
2013-01-20 23:06:00,40.7,28.7,30.10,SW,229,0.0,0.0,62,0.00,,,0.00,Wunderground v.1.15,2013-01-21 04:06:00,
2013-01-20 23:07:00,40.6,28.6,30.10,SW,229,0.0,0.0,62,0.00,,,0.00,Wunderground v.1.15,2013-01-21 04:07:00,
2013-01-20 23:10:00,40.2,28.6,30.10,SW,229,0.0,0.0,63,0.00,,,0.00,Wunderground v.1.15,2013-01-21 04:10:00,
2013-01-20 23:12:00,39.9,28.3,30.10,SW,229,0.0,0.0,63,0.00,,,0.00,Wunderground v.1.15,2013-01-21 04:12:00,
2013-01-20 23:13:00,39.7,28.5,30.10,SW,229,0.0,0.0,64,0.00,,,0.00,Wunderground v.1.15,2013-01-21 04:13:00,
2013-01-20 23:15:00,39.6,28.4,30.10,SW,229,0.0,0.0,64,0.00,,,0.00,Wunderground v.1.15,2013-01-21 04:15:00,
2013-01-20 23:17:00,39.4,29.0,30.10,SW,229,0.0,0.0,66,0.00,,,0.00,Wunderground v.1.15,2013-01-21 04:17:00,
2013-01-20 23:18:00,39.3,28.9,30.10,SW,229,0.0,0.0,66,0.00,,,0.00,Wunderground v.1.15,2013-01-21 04:18:00,
2013-01-20 23:20:00,39.1,29.1,30.10,SW,229,0.0,0.0,67,0.00,,,0.00,Wunderground v.1.15,2013-01-21 04:20:00,
2013-01-20 23:22:00,38.9,28.5,30.10,SW,229,0.0,0.0,66,0.00,,,0.00,Wunderground v.1.15,2013-01-21 04:22:00,
2013-01-20 23:23:00,38.9,28.9,30.10,SW,229,0.0,0.0,67,0.00,,,0.00,Wunderground v.1.15,2013-01-21 04:23:00,
2013-01-20 23:26:00,38.7,28.7,30.10,SW,229,0.0,0.0,67,0.00,,,0.00,Wunderground v.1.15,2013-01-21 04:26:00,
2013-01-20 23:28:00,38.4,28.8,30.10,SW,229,0.0,0.0,68,0.00,,,0.00,Wunderground v.1.15,2013-01-21 04:28:00,
2013-01-20 23:31:00,38.2,28.6,30.10,SW,229,0.0,0.0,68,0.00,,,0.00,Wunderground v.1.15,2013-01-21 04:31:00,
2013-01-20 23:33:00,37.9,29.0,30.10,SW,229,0.0,0.0,70,0.00,,,0.00,Wunderground v.1.15,2013-01-21 04:33:00,
2013-01-20 23:36:00,37.7,28.8,30.10,SW,229,0.0,0.0,70,0.00,,,0.00,Wunderground v.1.15,2013-01-21 04:36:00,
2013-01-20 23:39:00,37.3,28.4,30.10,SW,229,0.0,0.0,70,0.00,,,0.00,Wunderground v.1.15,2013-01-21 04:39:00,
2013-01-20 23:41:00,37.1,28.2,30.10,SW,229,0.0,0.0,70,0.00,,,0.00,Wunderground v.1.15,2013-01-21 04:41:00,
2013-01-20 23:44:00,36.9,29.1,30.10,SW,229,0.0,0.0,73,0.00,,,0.00,Wunderground v.1.15,2013-01-21 04:44:00,
2013-01-20 23:46:00,36.7,28.9,30.10,SW,229,0.0,0.0,73,0.00,,,0.00,Wunderground v.1.15,2013-01-21 04:46:00,
2013-01-20 23:49:00,36.5,28.3,30.10,SW,229,0.0,0.0,72,0.00,,,0.00,Wunderground v.1.15,2013-01-21 04:49:00,
2013-01-20 23:51:00,36.2,28.0,30.10,SW,229,0.0,0.0,72,0.00,,,0.00,Wunderground v.1.15,2013-01-21 04:51:00,
2013-01-20 23:54:00,36.0,28.5,30.10,SW,229,0.0,0.0,74,0.00,,,0.00,Wunderground v.1.15,2013-01-21 04:54:00,
2013-01-20 23:56:00,35.8,28.6,30.10,SW,229,0.0,0.0,75,0.00,,,0.00,Wunderground v.1.15,2013-01-21 04:56:00,
2013-01-20 23:59:00,35.7,28.9,30.10,SW,229,0.0,0.0,76,0.00,,,0.00,Wunderground v.1.15,2013-01-21 04:59:00,